Wetterdaten: Samstag, 13.03.2021
Datum Zeit Temp. Aussen Temp. o. S. Temp +5cm Feuchte Auss Luftdruck Regen Sonnenschein Regendauer Solar Windben Empfang
13.03.2021 00:00 7,0 C 6,1 C 4,5 C 84 % 1003,5 hPa 0,0 l/m 0 min 0 min 0 W/m 22,5 km/h (4 Bft) 95,74 %
13.03.2021 00:02 7,0 C 6,1 C 4,5 C 84 % 1003,6 hPa 0,0 l/m 0 min 0 min 0 W/m 25,7 km/h (4 Bft) 97,50 %
13.03.2021 00:04 7,0 C 6,1 C 4,5 C 84 % 1003,6 hPa 0,0 l/m 0 min 0 min 0 W/m 29,0 km/h (5 Bft) 95,65 %
13.03.2021 00:08 7,0 C 6,1 C 4,5 C 84 % 1003,6 hPa 0,0 l/m 0 min 0 min 0 W/m 25,7 km/h (4 Bft) 95,79 %
13.03.2021 00:10 7,0 C 6,7 C 4,5 C 84 % 1003,5 hPa 0,0 l/m 0 min 0 min 0 W/m 25,7 km/h (4 Bft) 97,87 %
13.03.2021 00:12 7,0 C 6,7 C 4,5 C 83 % 1003,5 hPa 0,0 l/m 0 min 0 min 0 W/m 19,3 km/h (3 Bft) 97,87 %
13.03.2021 00:14 7,0 C 6,7 C 4,5 C 83 % 1003,6 hPa 0,0 l/m 0 min 0 min 0 W/m 19,3 km/h (3 Bft) 97,83 %
13.03.2021 00:16 7,0 C 6,7 C 4,5 C 83 % 1003,5 hPa 0,0 l/m 0 min 0 min 0 W/m 19,3 km/h (3 Bft) 97,87 %
13.03.2021 00:18 7,0 C 6,1 C 4,5 C 83 % 1003,5 hPa 0,0 l/m 0 min 0 min 0 W/m 12,9 km/h (3 Bft) 95,74 %
13.03.2021 00:20 7,0 C 6,1 C 4,5 C 83 % 1003,4 hPa 0,0 l/m 0 min 0 min 0 W/m 12,9 km/h (3 Bft) 95,74 %
13.03.2021 00:22 7,0 C 6,1 C 4,5 C 83 % 1003,4 hPa 0,0 l/m 0 min 0 min 0 W/m 19,3 km/h (3 Bft) 97,87 %
13.03.2021 00:24 7,0 C 6,1 C 4,5 C 83 % 1003,4 hPa 0,0 l/m 0 min 0 min 0 W/m 25,7 km/h (4 Bft) 97,87 %
13.03.2021 00:26 7,0 C 6,1 C 4,5 C 83 % 1003,4 hPa 0,0 l/m 0 min 0 min 0 W/m 12,9 km/h (3 Bft) 97,87 %
13.03.2021 00:28 7,0 C 6,1 C 4,5 C 84 % 1003,3 hPa 0,0 l/m 0 min 0 min 0 W/m 19,3 km/h (3 Bft) 95,65 %
13.03.2021 00:30 7,0 C 6,1 C 4,5 C 84 % 1003,3 hPa 0,0 l/m 0 min 0 min 0 W/m 25,7 km/h (4 Bft) 97,87 %
13.03.2021 00:32 6,9 C 6,1 C 4,5 C 84 % 1003,3 hPa 0,0 l/m 0 min 0 min 0 W/m 22,5 km/h (4 Bft) 97,87 %
13.03.2021 00:34 6,9 C 6,1 C 4,5 C 84 % 1003,2 hPa 0,0 l/m 0 min 0 min 0 W/m 16,1 km/h (3 Bft) 100,00 %
13.03.2021 00:36 6,9 C 6,1 C 4,5 C 84 % 1003,2 hPa 0,0 l/m 0 min 0 min 0 W/m 22,5 km/h (4 Bft) 100,00 %
13.03.2021 00:38 6,9 C 6,1 C 4,5 C 84 % 1003,2 hPa 0,0 l/m 0 min 0 min 0 W/m 16,1 km/h (3 Bft) 97,87 %
13.03.2021 00:40 6,9 C 6,1 C 4,5 C 84 % 1003,2 hPa 0,0 l/m 0 min 0 min 0 W/m 22,5 km/h (4 Bft) 100,00 %
13.03.2021 00:42 6,9 C 6,1 C 4,5 C 84 % 1003,1 hPa 0,0 l/m 0 min 0 min 0 W/m 16,1 km/h (3 Bft) 100,00 %
13.03.2021 00:44 6,9 C 6,1 C 4,5 C 84 % 1003,1 hPa 0,0 l/m 0 min 0 min 0 W/m 22,5 km/h (4 Bft) 100,00 %
13.03.2021 00:46 6,9 C 6,1 C 4,5 C 84 % 1003,0 hPa 0,0 l/m 0 min 0 min 0 W/m 19,3 km/h (3 Bft) 100,00 %
13.03.2021 00:48 6,9 C 6,1 C 4,5 C 84 % 1002,9 hPa 0,0 l/m 0 min 0 min 0 W/m 25,7 km/h (4 Bft) 100,00 %
13.03.2021 00:50 6,9 C 6,1 C 4,5 C 84 % 1003,0 hPa 0,0 l/m 0 min 0 min 0 W/m 19,3 km/h (3 Bft) 100,00 %
13.03.2021 00:52 6,9 C 6,1 C 4,5 C 84 % 1002,9 hPa 0,0 l/m 0 min 0 min 0 W/m 16,1 km/h (3 Bft) 100,00 %
13.03.2021 00:54 6,9 C 6,1 C 4,5 C 84 % 1002,9 hPa 0,0 l/m 0 min 0 min 0 W/m 19,3 km/h (3 Bft) 100,00 %
13.03.2021 00:56 6,9 C 6,1 C 4,5 C 84 % 1002,9 hPa 0,0 l/m 0 min 0 min 0 W/m 29,0 km/h (5 Bft) 100,00 %
13.03.2021 00:58 6,9 C 6,1 C 4,5 C 84 % 1002,8 hPa 0,0 l/m 0 min 0 min 0 W/m 12,9 km/h (3 Bft) 100,00 %
13.03.2021 01:00 6,9 C 6,1 C 4,5 C 84 % 1002,8 hPa 0,0 l/m 0 min 0 min 0 W/m 16,1 km/h (3 Bft) 100,00 %
13.03.2021 01:02 6,9 C 6,1 C 4,5 C 84 % 1002,8 hPa 0,0 l/m 0 min 0 min 0 W/m 25,7 km/h (4 Bft) 100,00 %
13.03.2021 01:04 6,9 C 6,1 C 4,5 C 84 % 1002,8 hPa 0,0 l/m 0 min 0 min 0 W/m 22,5 km/h (4 Bft) 97,87 %
13.03.2021 01:06 7,0 C 6,1 C 4,5 C 84 % 1002,6 hPa 0,0 l/m 0 min 0 min 0 W/m 25,7 km/h (4 Bft) 100,00 %
13.03.2021 01:08 7,0 C 6,1 C 4,5 C 84 % 1002,6 hPa 0,0 l/m 0 min 0 min 0 W/m 25,7 km/h (4 Bft) 100,00 %
13.03.2021 01:10 7,0 C 6,1 C 4,5 C 84 % 1002,7 hPa 0,0 l/m 0 min 0 min 0 W/m 12,9 km/h (3 Bft) 100,00 %
13.03.2021 01:12 7,0 C 6,1 C 4,5 C 84 % 1002,6 hPa 0,0 l/m 0 min 0 min 0 W/m 19,3 km/h (3 Bft) 100,00 %
13.03.2021 01:14 7,0 C 6,1 C 4,5 C 84 % 1002,6 hPa 0,0 l/m 0 min 0 min 0 W/m 12,9 km/h (3 Bft) 100,00 %
13.03.2021 01:16 7,0 C 6,1 C 4,5 C 84 % 1002,5 hPa 0,0 l/m 0 min 0 min 0 W/m 12,9 km/h (3 Bft) 100,00 %
13.03.2021 01:18 7,0 C 6,1 C 4,5 C 84 % 1002,5 hPa 0,0 l/m 0 min 0 min 0 W/m 25,7 km/h (4 Bft) 100,00 %
13.03.2021 01:20 7,0 C 6,1 C 4,5 C 84 % 1002,5 hPa 0,0 l/m 0 min 0 min 0 W/m 19,3 km/h (3 Bft) 100,00 %
13.03.2021 01:22 7,0 C 6,1 C 4,5 C 84 % 1002,6 hPa 0,0 l/m 0 min 0 min 0 W/m 29,0 km/h (5 Bft) 97,87 %
13.03.2021 01:24 7,0 C 6,7 C 4,5 C 84 % 1002,5 hPa 0,0 l/m 0 min 0 min 0 W/m 32,2 km/h (5 Bft) 100,00 %
13.03.2021 01:26 7,0 C 6,7 C 4,5 C 84 % 1002,5 hPa 0,0 l/m 0 min 0 min 0 W/m 35,4 km/h (5 Bft) 100,00 %
13.03.2021 01:28 7,0 C 6,7 C 4,5 C 84 % 1002,5 hPa 0,0 l/m 0 min 0 min 0 W/m 25,7 km/h (4 Bft) 97,87 %
13.03.2021 01:30 7,1 C 6,7 C 4,5 C 84 % 1002,4 hPa 0,0 l/m 0 min 0 min 0 W/m 29,0 km/h (5 Bft) 97,87 %
13.03.2021 01:32 7,1 C 6,7 C 4,5 C 85 % 1002,3 hPa 0,0 l/m 0 min 0 min 0 W/m 22,5 km/h (4 Bft) 100,00 %
13.03.2021 01:34 7,1 C 6,7 C 4,5 C 85 % 1002,3 hPa 0,0 l/m 0 min 0 min 0 W/m 29,0 km/h (5 Bft) 100,00 %
13.03.2021 01:36 7,1 C 6,7 C 4,5 C 85 % 1002,3 hPa 0,0 l/m 0 min 0 min 0 W/m 25,7 km/h (4 Bft) 100,00 %
13.03.2021 01:38 7,1 C 6,7 C 4,5 C 85 % 1002,3 hPa 0,0 l/m 0 min 0 min 0 W/m 22,5 km/h (4 Bft) 100,00 %
13.03.2021 01:40 7,1 C 6,7 C 4,5 C 85 % 1002,1 hPa 0,0 l/m 0 min 0 min 0 W/m 22,5 km/h (4 Bft) 100,00 %
13.03.2021 01:42 7,1 C 6,7 C 4,5 C 85 % 1002,2 hPa 0,0 l/m 0 min 2 min 0 W/m 32,2 km/h (5 Bft) 97,87 %
13.03.2021 01:44 7,1 C 6,7 C 4,5 C 85 % 1002,1 hPa 0,0 l/m 0 min 0 min 0 W/m 29,0 km/h (5 Bft) 97,87 %
13.03.2021 01:46 7,1 C 6,7 C 4,5 C 85 % 1002,0 hPa 0,0 l/m 0 min 0 min 0 W/m 22,5 km/h (4 Bft) 95,74 %
13.03.2021 01:48 7,1 C 6,7 C 4,5 C 85 % 1002,0 hPa 0,0 l/m 0 min 0 min 0 W/m 22,5 km/h (4 Bft) 97,87 %
13.03.2021 01:50 7,1 C 6,7 C 4,5 C 85 % 1002,0 hPa 0,0 l/m 0 min 0 min 0 W/m 41,8 km/h (6 Bft) 95,74 %
13.03.2021 01:52 7,1 C 6,7 C 4,5 C 85 % 1002,0 hPa 0,0 l/m 0 min 0 min 0 W/m 35,4 km/h (5 Bft) 97,83 %
13.03.2021 01:54 7,1 C 6,7 C 4,5 C 86 % 1001,9 hPa 0,0 l/m 0 min 0 min 0 W/m 25,7 km/h (4 Bft) 97,87 %
13.03.2021 01:56 7,1 C 6,1 C 4,5 C 86 % 1002,0 hPa 0,0 l/m 0 min 0 min 0 W/m 22,5 km/h (4 Bft) 95,74 %
13.03.2021 01:58 7,1 C 6,1 C 4,5 C 86 % 1001,9 hPa 0,0 l/m 0 min 0 min 0 W/m 32,2 km/h (5 Bft) 95,74 %
13.03.2021 02:00 7,0 C 6,1 C 4,5 C 86 % 1002,0 hPa 0,0 l/m 0 min 0 min 0 W/m 38,6 km/h (5 Bft) 97,87 %
13.03.2021 02:02 7,0 C 6,1 C 4,5 C 87 % 1001,9 hPa 0,0 l/m 0 min 0 min 0 W/m 29,0 km/h (5 Bft) 97,83 %
13.03.2021 02:04 7,0 C 6,1 C 4,5 C 87 % 1001,9 hPa 0,0 l/m 0 min 0 min 0 W/m 19,3 km/h (3 Bft) 97,87 %
13.03.2021 02:06 7,0 C 6,1 C 4,5 C 87 % 1001,8 hPa 0,0 l/m 0 min 0 min 0 W/m 25,7 km/h (4 Bft) 97,87 %
13.03.2021 02:08 6,9 C 6,1 C 4,5 C 87 % 1001,9 hPa 0,0 l/m 0 min 2 min 0 W/m 29,0 km/h (5 Bft) 95,74 %
13.03.2021 02:10 6,9 C 6,1 C 4,5 C 87 % 1001,7 hPa 0,0 l/m 0 min 2 min 0 W/m 19,3 km/h (3 Bft) 95,74 %
13.03.2021 02:12 6,9 C 6,1 C 3,9 C 88 % 1001,7 hPa 0,0 l/m 0 min 2 min 0 W/m 41,8 km/h (6 Bft) 95,74 %
13.03.2021 02:14 6,9 C 6,1 C 3,9 C 88 % 1001,6 hPa 0,0 l/m 0 min 2 min 0 W/m 19,3 km/h (3 Bft) 95,74 %
13.03.2021 02:16 6,8 C 6,1 C 3,9 C 88 % 1001,6 hPa 0,0 l/m 0 min 2 min 0 W/m 35,4 km/h (5 Bft) 97,83 %
13.03.2021 02:18 6,8 C 5,6 C 3,9 C 89 % 1001,6 hPa 0,0 l/m 0 min 2 min 0 W/m 29,0 km/h (5 Bft) 97,87 %
13.03.2021 02:20 6,8 C 5,6 C 3,9 C 89 % 1001,5 hPa 0,0 l/m 0 min 2 min 0 W/m 22,5 km/h (4 Bft) 95,74 %
13.03.2021 02:22 6,7 C 5,6 C 3,9 C 89 % 1001,4 hPa 0,0 l/m 0 min 2 min 0 W/m 19,3 km/h (3 Bft) 97,87 %
13.03.2021 02:24 6,6 C 5,6 C 3,9 C 89 % 1001,3 hPa 0,0 l/m 0 min 2 min 0 W/m 35,4 km/h (5 Bft) 95,74 %
13.03.2021 02:26 6,6 C 5,6 C 3,9 C 90 % 1001,4 hPa 0,0 l/m 0 min 2 min 0 W/m 16,1 km/h (3 Bft) 95,65 %
13.03.2021 02:28 6,6 C 5,6 C 3,9 C 90 % 1001,3 hPa 0,0 l/m 0 min 2 min 0 W/m 19,3 km/h (3 Bft) 95,74 %
13.03.2021 02:30 6,5 C 5,6 C 3,9 C 90 % 1001,2 hPa 0,0 l/m 0 min 2 min 0 W/m 22,5 km/h (4 Bft) 95,74 %
13.03.2021 02:32 6,5 C 5,6 C 3,9 C 90 % 1001,1 hPa 0,0 l/m 0 min 2 min 0 W/m 22,5 km/h (4 Bft) 93,62 %
13.03.2021 02:34 6,4 C 5,6 C 3,9 C 91 % 1001,1 hPa 0,0 l/m 0 min 2 min 0 W/m 19,3 km/h (3 Bft) 97,87 %
13.03.2021 02:36 6,4 C 5,6 C 3,9 C 91 % 1001,2 hPa 0,0 l/m 0 min 2 min 0 W/m 25,7 km/h (4 Bft) 97,87 %
13.03.2021 02:38 6,4 C 5,6 C 3,9 C 91 % 1001,0 hPa 0,0 l/m 0 min 2 min 0 W/m 22,5 km/h (4 Bft) 97,83 %
13.03.2021 02:40 6,4 C 5,6 C 3,9 C 91 % 1001,0 hPa 0,2 l/m 0 min 2 min 0 W/m 12,9 km/h (3 Bft) 95,74 %
13.03.2021 02:42 6,4 C 5,6 C 3,9 C 91 % 1000,9 hPa 0,0 l/m 0 min 2 min 0 W/m 16,1 km/h (3 Bft) 97,87 %
13.03.2021 02:44 6,3 C 5,6 C 3,9 C 92 % 1000,9 hPa 0,0 l/m 0 min 2 min 0 W/m 25,7 km/h (4 Bft) 97,87 %
13.03.2021 02:46 6,3 C 5,6 C 3,9 C 92 % 1000,8 hPa 0,0 l/m 0 min 2 min 0 W/m 35,4 km/h (5 Bft) 97,87 %
13.03.2021 02:48 6,3 C 5,6 C 3,9 C 92 % 1000,8 hPa 0,0 l/m 0 min 2 min 0 W/m 29,0 km/h (5 Bft) 97,87 %
13.03.2021 02:50 6,3 C 5,6 C 3,9 C 92 % 1000,6 hPa 0,0 l/m 0 min 2 min 0 W/m 25,7 km/h (4 Bft) 95,74 %
13.03.2021 02:52 6,2 C 5,6 C 3,9 C 92 % 1000,5 hPa 0,0 l/m 0 min 2 min 0 W/m 32,2 km/h (5 Bft) 97,83 %
13.03.2021 02:54 6,2 C 5,6 C 3,9 C 92 % 1000,5 hPa 0,0 l/m 0 min 2 min 0 W/m 41,8 km/h (6 Bft) 95,74 %
13.03.2021 02:56 6,1 C 5,6 C 3,9 C 93 % 1000,5 hPa 0,0 l/m 0 min 2 min 0 W/m 29,0 km/h (5 Bft) 97,87 %
13.03.2021 02:58 6,1 C 5,0 C 3,9 C 93 % 1000,4 hPa 0,0 l/m 0 min 2 min 0 W/m 32,2 km/h (5 Bft) 97,92 %
13.03.2021 03:00 6,1 C 5,6 C 3,9 C 93 % 1000,4 hPa 0,2 l/m 0 min 2 min 0 W/m 29,0 km/h (5 Bft) 97,87 %
13.03.2021 03:02 6,1 C 5,0 C 3,9 C 93 % 1000,3 hPa 0,0 l/m 0 min 2 min 0 W/m 32,2 km/h (5 Bft) 95,74 %
13.03.2021 03:04 6,1 C 5,0 C 3,9 C 93 % 1000,2 hPa 0,0 l/m 0 min 2 min 0 W/m 48,3 km/h (6 Bft) 97,87 %
13.03.2021 03:06 6,1 C 5,0 C 3,9 C 93 % 1000,2 hPa 0,0 l/m 0 min 2 min 0 W/m 22,5 km/h (4 Bft) 100,00 %
13.03.2021 03:08 6,0 C 5,0 C 3,9 C 93 % 1000,2 hPa 0,0 l/m 0 min 2 min 0 W/m 41,8 km/h (6 Bft) 100,00 %
13.03.2021 03:10 6,0 C 5,0 C 3,9 C 93 % 1000,1 hPa 0,0 l/m 0 min 2 min 0 W/m 29,0 km/h (5 Bft) 100,00 %
13.03.2021 03:12 6,0 C 5,0 C 3,9 C 93 % 1000,1 hPa 0,0 l/m 0 min 2 min 0 W/m 25,7 km/h (4 Bft) 100,00 %
13.03.2021 03:14 6,0 C 5,0 C 3,9 C 93 % 1000,0 hPa 0,0 l/m 0 min 2 min 0 W/m 22,5 km/h (4 Bft) 97,87 %
13.03.2021 03:16 6,0 C 5,0 C 3,9 C 94 % 1000,1 hPa 0,0 l/m 0 min 2 min 0 W/m 29,0 km/h (5 Bft) 100,00 %
13.03.2021 03:18 6,0 C 5,0 C 3,9 C 94 % 999,9 hPa 0,2 l/m 0 min 2 min 0 W/m 25,7 km/h (4 Bft) 100,00 %
13.03.2021 03:20 6,0 C 5,0 C 3,9 C 94 % 999,9 hPa 0,0 l/m 0 min 2 min 0 W/m 19,3 km/h (3 Bft) 100,00 %
13.03.2021 03:22 6,0 C 5,0 C 3,9 C 94 % 999,9 hPa 0,0 l/m 0 min 2 min 0 W/m 19,3 km/h (3 Bft) 100,00 %
13.03.2021 03:24 6,0 C 5,0 C 3,9 C 94 % 999,8 hPa 0,0 l/m 0 min 2 min 0 W/m 22,5 km/h (4 Bft) 100,00 %
13.03.2021 03:26 5,9 C 5,0 C 3,9 C 94 % 999,8 hPa 0,2 l/m 0 min 2 min 0 W/m 32,2 km/h (5 Bft) 100,00 %
13.03.2021 03:28 5,9 C 5,0 C 3,9 C 94 % 999,7 hPa 0,0 l/m 0 min 2 min 0 W/m 29,0 km/h (5 Bft) 100,00 %
13.03.2021 03:30 5,9 C 5,0 C 3,9 C 94 % 999,6 hPa 0,0 l/m 0 min 2 min 0 W/m 29,0 km/h (5 Bft) 97,87 %
13.03.2021 03:32 5,9 C 5,0 C 3,9 C 94 % 999,6 hPa 0,0 l/m 0 min 2 min 0 W/m 25,7 km/h (4 Bft) 95,74 %
13.03.2021 03:34 5,9 C 5,0 C 3,9 C 94 % 999,5 hPa 0,0 l/m 0 min 2 min 0 W/m 22,5 km/h (4 Bft) 97,83 %
13.03.2021 03:36 5,9 C 5,0 C 3,9 C 94 % 999,4 hPa 0,0 l/m 0 min 2 min 0 W/m 25,7 km/h (4 Bft) 95,74 %
13.03.2021 03:38 5,9 C 5,0 C 3,9 C 94 % 999,4 hPa 0,0 l/m 0 min 2 min 0 W/m 29,0 km/h (5 Bft) 97,87 %
13.03.2021 03:40 5,9 C 5,0 C 3,9 C 94 % 999,4 hPa 0,0 l/m 0 min 2 min 0 W/m 22,5 km/h (4 Bft) 100,00 %
13.03.2021 03:42 5,9 C 5,0 C 3,9 C 94 % 999,4 hPa 0,0 l/m 0 min 2 min 0 W/m 25,7 km/h (4 Bft) 97,87 %
13.03.2021 03:44 5,9 C 5,0 C 3,9 C 94 % 999,3 hPa 0,0 l/m 0 min 2 min 0 W/m 19,3 km/h (3 Bft) 97,87 %
13.03.2021 03:46 5,9 C 5,0 C 3,9 C 94 % 999,3 hPa 0,0 l/m 0 min 2 min 0 W/m 22,5 km/h (4 Bft) 97,83 %
13.03.2021 03:48 5,9 C 5,0 C 3,9 C 94 % 999,2 hPa 0,0 l/m 0 min 2 min 0 W/m 22,5 km/h (4 Bft) 97,87 %
13.03.2021 03:50 5,9 C 5,0 C 3,9 C 94 % 999,2 hPa 0,0 l/m 0 min 2 min 0 W/m 32,2 km/h (5 Bft) 97,87 %
13.03.2021 03:52 5,9 C 5,0 C 3,9 C 94 % 999,1 hPa 0,0 l/m 0 min 2 min 0 W/m 19,3 km/h (3 Bft) 93,62 %
13.03.2021 03:54 5,9 C 5,0 C 3,9 C 94 % 999,0 hPa 0,0 l/m 0 min 2 min 0 W/m 25,7 km/h (4 Bft) 97,87 %
13.03.2021 03:56 5,9 C 5,0 C 3,9 C 94 % 999,0 hPa 0,0 l/m 0 min 2 min 0 W/m 22,5 km/h (4 Bft) 97,87 %
13.03.2021 03:58 5,9 C 5,0 C 3,9 C 94 % 998,9 hPa 0,0 l/m 0 min 2 min 0 W/m 29,0 km/h (5 Bft) 94,87 %
13.03.2021 04:00 5,9 C 5,0 C 3,9 C 94 % 998,8 hPa 0,2 l/m 0 min 2 min 0 W/m 22,5 km/h (4 Bft) 61,70 %
13.03.2021 04:02 5,9 C 5,0 C 3,9 C 95 % 998,8 hPa 0,0 l/m 0 min 2 min 0 W/m 22,5 km/h (4 Bft) 100,00 %
13.03.2021 04:07 5,9 C 5,0 C 3,9 C 95 % 998,6 hPa 0,0 l/m 0 min 5 min 0 W/m 25,7 km/h (4 Bft) 94,74 %
13.03.2021 04:08 5,9 C 5,0 C 3,9 C 95 % 998,6 hPa 0,0 l/m 0 min 1 min 0 W/m 19,3 km/h (3 Bft) 100,00 %
13.03.2021 04:10 5,9 C 5,0 C 3,9 C 95 % 998,5 hPa 0,0 l/m 0 min 2 min 0 W/m 19,3 km/h (3 Bft) 97,87 %
13.03.2021 04:12 5,9 C 5,0 C 3,9 C 95 % 998,5 hPa 0,0 l/m 0 min 2 min 0 W/m 25,7 km/h (4 Bft) 97,87 %
13.03.2021 04:14 5,9 C 5,0 C 3,9 C 95 % 998,4 hPa 0,2 l/m 0 min 2 min 0 W/m 22,5 km/h (4 Bft) 97,83 %
13.03.2021 04:16 5,9 C 5,0 C 3,9 C 95 % 998,3 hPa 0,0 l/m 0 min 2 min 0 W/m 19,3 km/h (3 Bft) 97,87 %
13.03.2021 04:18 5,9 C 5,0 C 3,9 C 95 % 998,2 hPa 0,0 l/m 0 min 2 min 0 W/m 22,5 km/h (4 Bft) 97,87 %
13.03.2021 04:20 5,9 C 5,0 C 3,9 C 95 % 998,2 hPa 0,0 l/m 0 min 2 min 0 W/m 32,2 km/h (5 Bft) 97,87 %
13.03.2021 04:22 5,9 C 5,0 C 3,9 C 95 % 998,2 hPa 0,0 l/m 0 min 2 min 0 W/m 29,0 km/h (5 Bft) 97,87 %
13.03.2021 04:24 5,9 C 5,0 C 3,9 C 95 % 998,2 hPa 0,0 l/m 0 min 2 min 0 W/m 25,7 km/h (4 Bft) 97,87 %
13.03.2021 04:26 5,9 C 5,0 C 3,9 C 95 % 998,1 hPa 0,0 l/m 0 min 2 min 0 W/m 25,7 km/h (4 Bft) 95,74 %
13.03.2021 04:28 6,0 C 5,6 C 3,9 C 95 % 998,1 hPa 0,0 l/m 0 min 2 min 0 W/m 25,7 km/h (4 Bft) 97,83 %
13.03.2021 04:30 6,0 C 5,0 C 3,9 C 95 % 997,9 hPa 0,0 l/m 0 min 2 min 0 W/m 19,3 km/h (3 Bft) 97,87 %
13.03.2021 04:32 6,0 C 5,0 C 3,9 C 95 % 997,9 hPa 0,0 l/m 0 min 2 min 0 W/m 19,3 km/h (3 Bft) 97,87 %
13.03.2021 04:34 6,0 C 5,0 C 3,9 C 95 % 997,7 hPa 0,0 l/m 0 min 2 min 0 W/m 25,7 km/h (4 Bft) 95,74 %
13.03.2021 04:36 6,0 C 5,6 C 3,9 C 95 % 997,7 hPa 0,0 l/m 0 min 2 min 0 W/m 25,7 km/h (4 Bft) 97,87 %
13.03.2021 04:38 6,0 C 5,0 C 3,9 C 95 % 997,7 hPa 0,0 l/m 0 min 2 min 0 W/m 29,0 km/h (5 Bft) 95,65 %
13.03.2021 04:40 6,0 C 5,6 C 4,5 C 95 % 997,6 hPa 0,0 l/m 0 min 2 min 0 W/m 25,7 km/h (4 Bft) 93,62 %
13.03.2021 04:42 6,1 C 5,6 C 4,5 C 95 % 997,4 hPa 0,0 l/m 0 min 2 min 0 W/m 22,5 km/h (4 Bft) 95,74 %
13.03.2021 04:44 6,1 C 5,6 C 4,5 C 95 % 997,4 hPa 0,0 l/m 0 min 2 min 0 W/m 25,7 km/h (4 Bft) 95,74 %
13.03.2021 04:46 6,1 C 5,6 C 4,5 C 95 % 997,4 hPa 0,2 l/m 0 min 2 min 0 W/m 22,5 km/h (4 Bft) 95,74 %
13.03.2021 04:48 6,1 C 5,6 C 4,5 C 95 % 997,2 hPa 0,0 l/m 0 min 2 min 0 W/m 19,3 km/h (3 Bft) 93,62 %
13.03.2021 04:50 6,1 C 5,6 C 4,5 C 95 % 997,3 hPa 0,0 l/m 0 min 2 min 0 W/m 19,3 km/h (3 Bft) 95,65 %
13.03.2021 04:52 6,1 C 5,6 C 4,5 C 95 % 997,2 hPa 0,0 l/m 0 min 2 min 0 W/m 25,7 km/h (4 Bft) 91,49 %
13.03.2021 04:54 6,1 C 5,6 C 4,5 C 95 % 997,2 hPa 0,0 l/m 0 min 0 min 0 W/m 22,5 km/h (4 Bft) 93,62 %
13.03.2021 04:56 6,2 C 5,6 C 4,5 C 95 % 997,2 hPa 0,0 l/m 0 min 2 min 0 W/m 32,2 km/h (5 Bft) 93,62 %
13.03.2021 04:58 6,3 C 5,6 C 4,5 C 95 % 997,1 hPa 0,0 l/m 0 min 2 min 0 W/m 32,2 km/h (5 Bft) 93,62 %
13.03.2021 05:00 6,3 C 5,6 C 4,5 C 95 % 997,1 hPa 0,0 l/m 0 min 2 min 0 W/m 32,2 km/h (5 Bft) 93,62 %
13.03.2021 05:02 6,3 C 5,6 C 4,5 C 95 % 997,1 hPa 0,0 l/m 0 min 2 min 0 W/m 41,8 km/h (6 Bft) 91,30 %
13.03.2021 05:04 6,4 C 5,6 C 4,5 C 95 % 997,0 hPa 0,0 l/m 0 min 2 min 0 W/m 22,5 km/h (4 Bft) 93,75 %
13.03.2021 05:06 6,4 C 5,6 C 4,5 C 95 % 997,0 hPa 0,0 l/m 0 min 2 min 0 W/m 32,2 km/h (5 Bft) 93,62 %
13.03.2021 05:08 6,4 C 5,6 C 4,5 C 95 % 997,0 hPa 0,0 l/m 0 min 2 min 0 W/m 51,5 km/h (7 Bft) 93,62 %
13.03.2021 05:10 6,5 C 6,1 C 4,5 C 95 % 996,9 hPa 0,0 l/m 0 min 2 min 0 W/m 29,0 km/h (5 Bft) 91,49 %
13.03.2021 05:12 6,5 C 5,6 C 4,5 C 94 % 996,9 hPa 0,2 l/m 0 min 2 min 0 W/m 25,7 km/h (4 Bft) 93,62 %
13.03.2021 05:14 6,5 C 5,6 C 4,5 C 95 % 996,7 hPa 0,0 l/m 0 min 2 min 0 W/m 32,2 km/h (5 Bft) 91,30 %
13.03.2021 05:16 6,6 C 5,6 C 4,5 C 94 % 996,7 hPa 0,0 l/m 0 min 2 min 0 W/m 32,2 km/h (5 Bft) 93,62 %
13.03.2021 05:18 6,6 C 5,6 C 4,5 C 94 % 996,7 hPa 0,0 l/m 0 min 2 min 0 W/m 25,7 km/h (4 Bft) 93,62 %
13.03.2021 05:20 6,6 C 5,6 C 4,5 C 94 % 996,7 hPa 0,0 l/m 0 min 2 min 0 W/m 22,5 km/h (4 Bft) 93,62 %
13.03.2021 05:22 6,7 C 5,6 C 4,5 C 94 % 996,6 hPa 0,2 l/m 0 min 2 min 0 W/m 41,8 km/h (6 Bft) 91,49 %
13.03.2021 05:24 6,7 C 5,6 C 4,5 C 94 % 996,4 hPa 0,2 l/m 0 min 2 min 0 W/m 29,0 km/h (5 Bft) 95,74 %
13.03.2021 05:26 6,7 C 5,6 C 4,5 C 94 % 996,4 hPa 0,0 l/m 0 min 2 min 0 W/m 35,4 km/h (5 Bft) 93,48 %
13.03.2021 05:28 6,8 C 5,6 C 4,5 C 94 % 996,8 hPa 0,0 l/m 0 min 2 min 0 W/m 51,5 km/h (7 Bft) 93,62 %
13.03.2021 05:30 6,8 C 5,6 C 4,5 C 94 % 996,3 hPa 0,0 l/m 0 min 2 min 0 W/m 38,6 km/h (5 Bft) 95,74 %
13.03.2021 05:32 6,8 C 5,6 C 4,5 C 94 % 996,3 hPa 0,0 l/m 0 min 2 min 0 W/m 29,0 km/h (5 Bft) 100,00 %
13.03.2021 05:34 6,8 C 5,6 C 4,5 C 94 % 996,1 hPa 0,0 l/m 0 min 2 min 0 W/m 25,7 km/h (4 Bft) 97,87 %
13.03.2021 05:36 6,8 C 5,6 C 5,0 C 94 % 996,1 hPa 0,0 l/m 0 min 2 min 0 W/m 38,6 km/h (5 Bft) 100,00 %
13.03.2021 05:38 6,8 C 5,6 C 5,0 C 94 % 996,0 hPa 0,2 l/m 0 min 2 min 0 W/m 25,7 km/h (4 Bft) 97,87 %
13.03.2021 05:40 6,8 C 5,6 C 5,0 C 94 % 996,0 hPa 0,0 l/m 0 min 2 min 0 W/m 29,0 km/h (5 Bft) 100,00 %
13.03.2021 05:42 6,8 C 5,6 C 5,0 C 94 % 995,9 hPa 0,0 l/m 0 min 2 min 0 W/m 25,7 km/h (4 Bft) 100,00 %
13.03.2021 05:44 6,8 C 5,6 C 5,0 C 94 % 995,9 hPa 0,0 l/m 0 min 2 min 0 W/m 35,4 km/h (5 Bft) 100,00 %
13.03.2021 05:46 6,8 C 5,6 C 5,0 C 94 % 995,7 hPa 0,0 l/m 0 min 2 min 0 W/m 25,7 km/h (4 Bft) 100,00 %
13.03.2021 05:48 6,8 C 5,6 C 5,0 C 94 % 995,7 hPa 0,0 l/m 0 min 2 min 0 W/m 29,0 km/h (5 Bft) 95,74 %
13.03.2021 05:50 6,8 C 5,6 C 5,0 C 94 % 995,8 hPa 0,0 l/m 0 min 2 min 0 W/m 25,7 km/h (4 Bft) 100,00 %
13.03.2021 05:52 6,8 C 5,6 C 5,0 C 94 % 995,7 hPa 0,0 l/m 0 min 2 min 0 W/m 25,7 km/h (4 Bft) 100,00 %
13.03.2021 05:54 6,8 C 5,6 C 5,0 C 94 % 995,6 hPa 0,0 l/m 0 min 2 min 0 W/m 22,5 km/h (4 Bft) 100,00 %
13.03.2021 05:56 6,8 C 5,6 C 5,0 C 94 % 995,5 hPa 0,0 l/m 0 min 2 min 0 W/m 25,7 km/h (4 Bft) 100,00 %
13.03.2021 05:58 6,8 C 5,6 C 5,0 C 94 % 995,5 hPa 0,0 l/m 0 min 2 min 0 W/m 29,0 km/h (5 Bft) 97,87 %
13.03.2021 06:00 6,8 C 5,6 C 5,0 C 94 % 995,4 hPa 0,0 l/m 0 min 2 min 0 W/m 22,5 km/h (4 Bft) 100,00 %
13.03.2021 06:02 6,7 C 5,6 C 5,0 C 94 % 995,4 hPa 0,0 l/m 0 min 2 min 0 W/m 38,6 km/h (5 Bft) 97,87 %
13.03.2021 06:04 6,8 C 6,1 C 5,0 C 94 % 995,3 hPa 0,2 l/m 0 min 2 min 0 W/m 29,0 km/h (5 Bft) 97,87 %
13.03.2021 06:08 6,7 C 6,1 C 5,0 C 94 % 995,3 hPa 0,0 l/m 0 min 4 min 0 W/m 29,0 km/h (5 Bft) 98,96 %
13.03.2021 06:10 6,8 C 6,1 C 5,0 C 94 % 995,2 hPa 0,0 l/m 0 min 2 min 0 W/m 25,7 km/h (4 Bft) 100,00 %
13.03.2021 06:12 6,8 C 6,1 C 5,0 C 94 % 995,2 hPa 0,0 l/m 0 min 2 min 0 W/m 22,5 km/h (4 Bft) 100,00 %
13.03.2021 06:14 6,8 C 6,1 C 5,0 C 94 % 995,1 hPa 0,0 l/m 0 min 2 min 0 W/m 32,2 km/h (5 Bft) 100,00 %
13.03.2021 06:16 6,8 C 6,1 C 5,0 C 94 % 995,1 hPa 0,0 l/m 0 min 2 min 0 W/m 22,5 km/h (4 Bft) 95,74 %
13.03.2021 06:18 6,8 C 6,1 C 5,0 C 94 % 995,0 hPa 0,0 l/m 0 min 2 min 0 W/m 29,0 km/h (5 Bft) 100,00 %
13.03.2021 06:20 6,8 C 6,1 C 5,0 C 94 % 995,0 hPa 0,0 l/m 0 min 2 min 0 W/m 25,7 km/h (4 Bft) 100,00 %
13.03.2021 06:22 6,8 C 6,1 C 5,0 C 94 % 994,9 hPa 0,0 l/m 0 min 2 min 0 W/m 22,5 km/h (4 Bft) 100,00 %
13.03.2021 06:24 6,8 C 6,1 C 5,0 C 94 % 994,8 hPa 0,0 l/m 0 min 2 min 0 W/m 38,6 km/h (5 Bft) 100,00 %
13.03.2021 06:26 6,8 C 6,1 C 5,0 C 94 % 994,8 hPa 0,0 l/m 0 min 2 min 0 W/m 41,8 km/h (6 Bft) 100,00 %
13.03.2021 06:28 6,8 C 6,1 C 5,0 C 94 % 994,8 hPa 0,0 l/m 0 min 2 min 0 W/m 29,0 km/h (5 Bft) 56,52 %
13.03.2021 06:30 6,9 C 6,1 C 5,0 C 94 % 994,6 hPa 0,2 l/m 0 min 2 min 0 W/m 45,1 km/h (6 Bft) 100,00 %
13.03.2021 06:32 6,9 C 6,1 C 5,0 C 94 % 994,6 hPa 0,0 l/m 0 min 2 min 0 W/m 29,0 km/h (5 Bft) 100,00 %
13.03.2021 06:34 6,9 C 6,1 C 5,0 C 94 % 994,6 hPa 0,0 l/m 0 min 2 min 0 W/m 32,2 km/h (5 Bft) 100,00 %
13.03.2021 06:36 7,0 C 6,1 C 5,0 C 94 % 994,4 hPa 0,0 l/m 0 min 2 min 0 W/m 29,0 km/h (5 Bft) 100,00 %
13.03.2021 06:38 7,0 C 6,1 C 5,0 C 93 % 994,4 hPa 0,0 l/m 0 min 2 min 0 W/m 25,7 km/h (4 Bft) 100,00 %
13.03.2021 06:40 7,0 C 6,1 C 5,0 C 94 % 994,3 hPa 0,0 l/m 0 min 2 min 0 W/m 48,3 km/h (6 Bft) 100,00 %
13.03.2021 06:42 7,0 C 6,1 C 5,0 C 93 % 994,3 hPa 0,0 l/m 0 min 2 min 0 W/m 48,3 km/h (6 Bft) 100,00 %
13.03.2021 06:44 7,1 C 6,1 C 5,0 C 93 % 994,3 hPa 0,0 l/m 0 min 2 min 0 W/m 51,5 km/h (7 Bft) 100,00 %
13.03.2021 06:46 7,1 C 6,1 C 5,0 C 93 % 994,1 hPa 0,2 l/m 0 min 2 min 0 W/m 41,8 km/h (6 Bft) 97,83 %
13.03.2021 06:48 7,2 C 6,1 C 5,0 C 93 % 994,3 hPa 0,0 l/m 0 min 2 min 0 W/m 41,8 km/h (6 Bft) 100,00 %
13.03.2021 06:50 7,3 C 6,7 C 5,0 C 93 % 994,1 hPa 0,0 l/m 0 min 2 min 0 W/m 45,1 km/h (6 Bft) 100,00 %
13.03.2021 06:52 7,4 C 6,7 C 5,0 C 92 % 994,0 hPa 0,0 l/m 0 min 2 min 0 W/m 35,4 km/h (5 Bft) 100,00 %
13.03.2021 06:54 7,4 C 6,7 C 5,0 C 92 % 994,0 hPa 0,0 l/m 0 min 2 min 0 W/m 45,1 km/h (6 Bft) 100,00 %
13.03.2021 06:56 7,4 C 6,7 C 5,0 C 92 % 993,9 hPa 0,0 l/m 0 min 2 min 0 W/m 32,2 km/h (5 Bft) 100,00 %
13.03.2021 06:58 7,4 C 6,7 C 5,0 C 92 % 994,0 hPa 0,0 l/m 0 min 2 min 0 W/m 32,2 km/h (5 Bft) 100,00 %
13.03.2021 07:00 7,4 C 6,7 C 5,0 C 91 % 993,9 hPa 0,0 l/m 0 min 2 min 0 W/m 48,3 km/h (6 Bft) 100,00 %
13.03.2021 07:02 7,5 C 6,7 C 5,0 C 91 % 993,6 hPa 0,0 l/m 0 min 2 min 0 W/m 41,8 km/h (6 Bft) 100,00 %
13.03.2021 07:04 7,5 C 6,7 C 5,6 C 91 % 993,7 hPa 0,0 l/m 0 min 2 min 0 W/m 54,7 km/h (7 Bft) 100,00 %
13.03.2021 07:06 7,5 C 6,7 C 5,6 C 91 % 993,8 hPa 0,0 l/m 0 min 2 min 0 W/m 51,5 km/h (7 Bft) 100,00 %
13.03.2021 07:08 7,5 C 6,7 C 5,6 C 91 % 993,5 hPa 0,0 l/m 0 min 2 min 0 W/m 41,8 km/h (6 Bft) 97,87 %
13.03.2021 07:10 7,5 C 6,7 C 5,6 C 91 % 993,7 hPa 0,0 l/m 0 min 2 min 0 W/m 45,1 km/h (6 Bft) 100,00 %
13.03.2021 07:12 7,5 C 6,7 C 5,6 C 91 % 993,6 hPa 0,0 l/m 0 min 2 min 0 W/m 29,0 km/h (5 Bft) 100,00 %
13.03.2021 07:14 7,5 C 6,7 C 5,6 C 91 % 993,5 hPa 0,0 l/m 0 min 2 min 1 W/m 38,6 km/h (5 Bft) 97,87 %
13.03.2021 07:16 7,5 C 6,7 C 5,6 C 91 % 993,5 hPa 0,2 l/m 0 min 2 min 3 W/m 45,1 km/h (6 Bft) 100,00 %
13.03.2021 07:18 7,5 C 6,7 C 5,6 C 91 % 993,8 hPa 0,0 l/m 0 min 2 min 6 W/m 64,4 km/h (8 Bft) 100,00 %
13.03.2021 07:20 7,6 C 6,1 C 5,6 C 91 % 993,5 hPa 0,0 l/m 0 min 2 min 7 W/m 67,6 km/h (8 Bft) 100,00 %
13.03.2021 07:22 7,6 C 6,1 C 5,6 C 90 % 993,5 hPa 0,0 l/m 0 min 2 min 11 W/m 48,3 km/h (6 Bft) 100,00 %
13.03.2021 07:24 7,6 C 6,1 C 5,6 C 90 % 993,7 hPa 0,0 l/m 0 min 2 min 12 W/m 41,8 km/h (6 Bft) 95,74 %
13.03.2021 07:26 7,6 C 6,1 C 5,6 C 90 % 993,3 hPa 0,0 l/m 0 min 2 min 14 W/m 35,4 km/h (5 Bft) 97,87 %
13.03.2021 07:28 7,6 C 6,1 C 5,6 C 90 % 993,3 hPa 0,0 l/m 0 min 2 min 16 W/m 32,2 km/h (5 Bft) 97,87 %
13.03.2021 07:30 7,6 C 6,7 C 5,6 C 90 % 993,3 hPa 0,2 l/m 0 min 2 min 18 W/m 54,7 km/h (7 Bft) 95,74 %
13.03.2021 07:32 7,6 C 6,7 C 5,6 C 90 % 993,2 hPa 0,0 l/m 0 min 2 min 19 W/m 61,2 km/h (7 Bft) 97,83 %
13.03.2021 07:34 7,6 C 6,7 C 5,6 C 90 % 993,5 hPa 0,0 l/m 0 min 2 min 19 W/m 41,8 km/h (6 Bft) 95,83 %
13.03.2021 07:36 7,6 C 6,7 C 5,6 C 90 % 993,1 hPa 0,0 l/m 0 min 2 min 18 W/m 45,1 km/h (6 Bft) 95,74 %
13.03.2021 07:38 7,6 C 6,7 C 5,6 C 90 % 993,2 hPa 0,0 l/m 0 min 2 min 16 W/m 67,6 km/h (8 Bft) 97,87 %
13.03.2021 07:40 7,6 C 6,7 C 5,6 C 90 % 993,3 hPa 0,0 l/m 0 min 2 min 16 W/m 54,7 km/h (7 Bft) 95,74 %
13.03.2021 07:42 7,6 C 6,7 C 5,6 C 90 % 993,2 hPa 0,0 l/m 0 min 2 min 22 W/m 29,0 km/h (5 Bft) 95,74 %
13.03.2021 07:44 7,6 C 6,7 C 5,6 C 90 % 993,3 hPa 0,0 l/m 0 min 2 min 27 W/m 45,1 km/h (6 Bft) 93,62 %
13.03.2021 07:46 7,6 C 6,7 C 5,6 C 90 % 993,0 hPa 0,0 l/m 0 min 2 min 26 W/m 48,3 km/h (6 Bft) 95,65 %
13.03.2021 07:48 7,6 C 6,7 C 5,6 C 90 % 993,1 hPa 0,0 l/m 0 min 2 min 30 W/m 29,0 km/h (5 Bft) 93,62 %
13.03.2021 07:50 7,6 C 6,7 C 5,6 C 90 % 993,0 hPa 0,0 l/m 0 min 2 min 32 W/m 45,1 km/h (6 Bft) 95,74 %
13.03.2021 07:52 7,6 C 6,7 C 5,6 C 90 % 993,1 hPa 0,0 l/m 0 min 2 min 32 W/m 57,9 km/h (7 Bft) 95,74 %
13.03.2021 07:54 7,7 C 6,7 C 5,6 C 90 % 993,1 hPa 0,0 l/m 0 min 2 min 38 W/m 54,7 km/h (7 Bft) 95,74 %
13.03.2021 07:56 7,8 C 6,7 C 5,6 C 90 % 992,8 hPa 0,0 l/m 0 min 2 min 38 W/m 51,5 km/h (7 Bft) 95,74 %
13.03.2021 07:58 7,8 C 6,7 C 5,6 C 90 % 992,6 hPa 0,0 l/m 0 min 2 min 38 W/m 54,7 km/h (7 Bft) 93,48 %
13.03.2021 08:00 7,8 C 6,7 C 5,6 C 89 % 992,8 hPa 0,0 l/m 0 min 2 min 43 W/m 48,3 km/h (6 Bft) 95,74 %
13.03.2021 08:02 7,8 C 6,7 C 5,6 C 89 % 992,9 hPa 0,0 l/m 0 min 2 min 40 W/m 54,7 km/h (7 Bft) 97,67 %
13.03.2021 08:04 7,8 C 6,7 C 5,6 C 89 % 993,0 hPa 0,0 l/m 0 min 2 min 39 W/m 54,7 km/h (7 Bft) 93,62 %
13.03.2021 08:06 7,9 C 6,7 C 5,6 C 89 % 993,2 hPa 0,0 l/m 0 min 2 min 34 W/m 70,8 km/h (8 Bft) 95,74 %
13.03.2021 08:08 7,9 C 6,7 C 5,6 C 89 % 993,4 hPa 0,0 l/m 0 min 2 min 33 W/m 35,4 km/h (5 Bft) 95,74 %
13.03.2021 08:10 7,8 C 6,1 C 5,6 C 89 % 993,6 hPa 0,2 l/m 0 min 2 min 31 W/m 48,3 km/h (6 Bft) 97,83 %
13.03.2021 08:12 7,8 C 6,1 C 5,6 C 90 % 993,8 hPa 0,0 l/m 0 min 2 min 31 W/m 67,6 km/h (8 Bft) 95,74 %
13.03.2021 08:14 7,6 C 6,1 C 5,6 C 90 % 993,9 hPa 0,0 l/m 0 min 2 min 30 W/m 48,3 km/h (6 Bft) 95,74 %
13.03.2021 08:16 7,5 C 6,1 C 5,6 C 91 % 994,0 hPa 0,2 l/m 0 min 2 min 35 W/m 57,9 km/h (7 Bft) 97,87 %
13.03.2021 08:18 7,5 C 6,1 C 5,6 C 90 % 994,1 hPa 0,0 l/m 0 min 2 min 46 W/m 61,2 km/h (7 Bft) 97,87 %
13.03.2021 08:20 7,4 C 6,1 C 5,0 C 90 % 993,9 hPa 0,0 l/m 0 min 2 min 41 W/m 41,8 km/h (6 Bft) 95,74 %
13.03.2021 08:22 7,4 C 6,1 C 5,0 C 89 % 993,9 hPa 0,0 l/m 0 min 2 min 31 W/m 48,3 km/h (6 Bft) 97,83 %
13.03.2021 08:24 7,4 C 6,1 C 5,0 C 89 % 994,0 hPa 0,0 l/m 0 min 2 min 23 W/m 38,6 km/h (5 Bft) 97,96 %
13.03.2021 08:26 7,3 C 5,6 C 5,0 C 88 % 993,9 hPa 0,0 l/m 0 min 2 min 19 W/m 41,8 km/h (6 Bft) 97,87 %
13.03.2021 08:28 7,2 C 5,6 C 5,0 C 88 % 993,7 hPa 0,0 l/m 0 min 2 min 19 W/m 38,6 km/h (5 Bft) 97,87 %
13.03.2021 08:30 7,1 C 5,6 C 4,5 C 87 % 993,8 hPa 0,0 l/m 0 min 2 min 21 W/m 57,9 km/h (7 Bft) 100,00 %
13.03.2021 08:32 7,1 C 5,6 C 4,5 C 87 % 993,7 hPa 0,0 l/m 0 min 2 min 25 W/m 41,8 km/h (6 Bft) 100,00 %
13.03.2021 08:34 7,0 C 5,6 C 4,5 C 87 % 993,6 hPa 0,0 l/m 0 min 2 min 26 W/m 38,6 km/h (5 Bft) 100,00 %
13.03.2021 08:36 7,0 C 5,6 C 4,5 C 86 % 993,6 hPa 0,0 l/m 0 min 2 min 28 W/m 64,4 km/h (8 Bft) 97,87 %
13.03.2021 08:38 7,0 C 5,6 C 4,5 C 85 % 993,6 hPa 0,0 l/m 0 min 2 min 28 W/m 25,7 km/h (4 Bft) 97,87 %
13.03.2021 08:40 6,9 C 5,6 C 4,5 C 85 % 993,4 hPa 0,0 l/m 0 min 0 min 27 W/m 45,1 km/h (6 Bft) 100,00 %
13.03.2021 08:42 6,9 C 5,6 C 4,5 C 85 % 993,6 hPa 0,0 l/m 0 min 0 min 23 W/m 35,4 km/h (5 Bft) 100,00 %
13.03.2021 08:44 6,9 C 5,6 C 4,5 C 85 % 993,6 hPa 0,0 l/m 0 min 0 min 24 W/m 41,8 km/h (6 Bft) 100,00 %
13.03.2021 08:46 6,9 C 5,6 C 4,5 C 85 % 993,6 hPa 0,0 l/m 0 min 0 min 27 W/m 32,2 km/h (5 Bft) 100,00 %
13.03.2021 08:48 6,9 C 5,6 C 4,5 C 85 % 993,7 hPa 0,0 l/m 0 min 0 min 33 W/m 25,7 km/h (4 Bft) 100,00 %
13.03.2021 08:50 6,9 C 5,6 C 4,5 C 85 % 993,8 hPa 0,0 l/m 0 min 0 min 37 W/m 41,8 km/h (6 Bft) 100,00 %
13.03.2021 08:52 6,9 C 5,6 C 4,5 C 84 % 993,9 hPa 0,0 l/m 0 min 0 min 40 W/m 29,0 km/h (5 Bft) 100,00 %
13.03.2021 08:54 6,9 C 5,6 C 4,5 C 84 % 993,7 hPa 0,0 l/m 0 min 0 min 39 W/m 29,0 km/h (5 Bft) 100,00 %
13.03.2021 08:56 6,8 C 5,6 C 4,5 C 84 % 993,8 hPa 0,0 l/m 0 min 2 min 36 W/m 41,8 km/h (6 Bft) 97,83 %
13.03.2021 08:58 6,8 C 5,6 C 3,9 C 84 % 993,9 hPa 0,0 l/m 0 min 0 min 36 W/m 32,2 km/h (5 Bft) 100,00 %
13.03.2021 09:00 6,8 C 5,6 C 3,9 C 85 % 994,0 hPa 0,0 l/m 0 min 0 min 42 W/m 25,7 km/h (4 Bft) 100,00 %
13.03.2021 09:02 6,8 C 5,6 C 3,9 C 84 % 993,9 hPa 0,0 l/m 0 min 0 min 47 W/m 35,4 km/h (5 Bft) 100,00 %
13.03.2021 09:04 6,8 C 5,6 C 3,9 C 84 % 993,9 hPa 0,0 l/m 0 min 0 min 49 W/m 32,2 km/h (5 Bft) 100,00 %
13.03.2021 09:06 6,8 C 5,6 C 3,9 C 84 % 993,9 hPa 0,0 l/m 0 min 0 min 46 W/m 25,7 km/h (4 Bft) 100,00 %
13.03.2021 09:08 6,8 C 5,6 C 3,9 C 84 % 993,8 hPa 0,0 l/m 0 min 0 min 41 W/m 32,2 km/h (5 Bft) 100,00 %
13.03.2021 09:10 6,8 C 5,6 C 3,9 C 84 % 993,9 hPa 0,0 l/m 0 min 0 min 47 W/m 41,8 km/h (6 Bft) 97,87 %
13.03.2021 09:12 6,8 C 5,6 C 3,9 C 84 % 993,9 hPa 0,0 l/m 0 min 0 min 71 W/m 51,5 km/h (7 Bft) 100,00 %
13.03.2021 09:14 6,8 C 6,1 C 4,5 C 84 % 994,0 hPa 0,0 l/m 0 min 0 min 82 W/m 29,0 km/h (5 Bft) 100,00 %
13.03.2021 09:16 6,8 C 6,1 C 4,5 C 84 % 993,9 hPa 0,0 l/m 0 min 0 min 75 W/m 29,0 km/h (5 Bft) 100,00 %
13.03.2021 09:18 6,9 C 6,1 C 4,5 C 84 % 994,0 hPa 0,0 l/m 0 min 0 min 68 W/m 41,8 km/h (6 Bft) 100,00 %
13.03.2021 09:20 6,9 C 6,1 C 4,5 C 84 % 994,1 hPa 0,0 l/m 0 min 0 min 69 W/m 48,3 km/h (6 Bft) 100,00 %
13.03.2021 09:22 6,9 C 6,1 C 4,5 C 84 % 994,1 hPa 0,0 l/m 0 min 0 min 72 W/m 38,6 km/h (5 Bft) 100,00 %
13.03.2021 09:24 6,9 C 6,1 C 4,5 C 84 % 994,2 hPa 0,0 l/m 0 min 0 min 70 W/m 32,2 km/h (5 Bft) 100,00 %
13.03.2021 09:26 6,9 C 6,1 C 4,5 C 84 % 994,1 hPa 0,0 l/m 0 min 0 min 71 W/m 25,7 km/h (4 Bft) 100,00 %
13.03.2021 09:28 6,9 C 6,1 C 4,5 C 84 % 994,2 hPa 0,0 l/m 0 min 0 min 74 W/m 29,0 km/h (5 Bft) 100,00 %
13.03.2021 09:30 6,9 C 6,1 C 4,5 C 84 % 994,1 hPa 0,0 l/m 0 min 0 min 78 W/m 29,0 km/h (5 Bft) 100,00 %
13.03.2021 09:32 6,9 C 6,1 C 4,5 C 84 % 994,2 hPa 0,0 l/m 0 min 0 min 84 W/m 29,0 km/h (5 Bft) 97,87 %
13.03.2021 09:34 6,9 C 6,1 C 4,5 C 84 % 994,2 hPa 0,0 l/m 0 min 0 min 85 W/m 25,7 km/h (4 Bft) 100,00 %
13.03.2021 09:36 6,9 C 6,1 C 4,5 C 84 % 994,1 hPa 0,0 l/m 0 min 0 min 83 W/m 29,0 km/h (5 Bft) 100,00 %
13.03.2021 09:38 7,0 C 6,1 C 4,5 C 84 % 994,1 hPa 0,0 l/m 0 min 0 min 81 W/m 32,2 km/h (5 Bft) 100,00 %
13.03.2021 09:40 7,0 C 6,1 C 4,5 C 84 % 994,2 hPa 0,0 l/m 0 min 0 min 83 W/m 22,5 km/h (4 Bft) 100,00 %
13.03.2021 09:42 7,0 C 6,1 C 4,5 C 84 % 994,1 hPa 0,0 l/m 0 min 0 min 81 W/m 22,5 km/h (4 Bft) 97,87 %
13.03.2021 09:44 7,0 C 6,1 C 4,5 C 84 % 994,2 hPa 0,0 l/m 0 min 0 min 83 W/m 19,3 km/h (3 Bft) 100,00 %
13.03.2021 09:46 7,0 C 6,1 C 4,5 C 84 % 994,3 hPa 0,0 l/m 0 min 0 min 84 W/m 19,3 km/h (3 Bft) 97,87 %
13.03.2021 09:48 7,0 C 6,1 C 4,5 C 84 % 994,3 hPa 0,0 l/m 0 min 0 min 85 W/m 38,6 km/h (5 Bft) 100,00 %
13.03.2021 09:50 7,0 C 6,7 C 4,5 C 84 % 994,3 hPa 0,0 l/m 0 min 0 min 90 W/m 22,5 km/h (4 Bft) 97,87 %
13.03.2021 09:52 7,0 C 6,7 C 4,5 C 84 % 994,3 hPa 0,0 l/m 0 min 0 min 90 W/m 32,2 km/h (5 Bft) 97,87 %
13.03.2021 09:54 7,0 C 6,7 C 4,5 C 84 % 994,3 hPa 0,0 l/m 0 min 0 min 98 W/m 38,6 km/h (5 Bft) 97,87 %
13.03.2021 09:56 7,1 C 6,7 C 4,5 C 84 % 994,3 hPa 0,0 l/m 0 min 0 min 105 W/m 51,5 km/h (7 Bft) 97,83 %
13.03.2021 09:58 7,1 C 6,7 C 4,5 C 84 % 994,3 hPa 0,0 l/m 0 min 0 min 96 W/m 25,7 km/h (4 Bft) 97,87 %
13.03.2021 10:00 7,1 C 6,7 C 4,5 C 85 % 994,2 hPa 0,0 l/m 0 min 0 min 99 W/m 22,5 km/h (4 Bft) 97,37 %
13.03.2021 10:02 7,1 C 6,7 C 4,5 C 85 % 994,1 hPa 0,0 l/m 0 min 0 min 109 W/m 38,6 km/h (5 Bft) 97,87 %
13.03.2021 10:04 7,2 C 6,7 C 4,5 C 85 % 994,2 hPa 0,0 l/m 0 min 0 min 116 W/m 25,7 km/h (4 Bft) 96,49 %
13.03.2021 10:06 7,2 C 6,7 C 4,5 C 85 % 994,2 hPa 0,0 l/m 0 min 0 min 116 W/m 32,2 km/h (5 Bft) 97,83 %
13.03.2021 10:08 7,2 C 6,7 C 4,5 C 85 % 994,3 hPa 0,0 l/m 0 min 0 min 111 W/m 41,8 km/h (6 Bft) 97,92 %
13.03.2021 10:10 7,3 C 6,7 C 4,5 C 85 % 994,4 hPa 0,0 l/m 0 min 0 min 121 W/m 45,1 km/h (6 Bft) 97,87 %
13.03.2021 10:12 7,3 C 6,7 C 4,5 C 85 % 994,3 hPa 0,0 l/m 0 min 0 min 116 W/m 48,3 km/h (6 Bft) 97,87 %
13.03.2021 10:14 7,3 C 6,7 C 4,5 C 84 % 994,3 hPa 0,0 l/m 0 min 0 min 111 W/m 41,8 km/h (6 Bft) 93,62 %
13.03.2021 10:16 7,3 C 6,7 C 4,5 C 85 % 994,3 hPa 0,0 l/m 0 min 0 min 110 W/m 32,2 km/h (5 Bft) 93,62 %
13.03.2021 10:18 7,4 C 6,7 C 4,5 C 85 % 994,3 hPa 0,0 l/m 0 min 0 min 117 W/m 41,8 km/h (6 Bft) 95,65 %
13.03.2021 10:20 7,4 C 6,7 C 4,5 C 85 % 994,2 hPa 0,0 l/m 0 min 0 min 131 W/m 22,5 km/h (4 Bft) 93,62 %
13.03.2021 10:22 7,4 C 6,7 C 5,0 C 85 % 994,2 hPa 0,0 l/m 0 min 0 min 124 W/m 25,7 km/h (4 Bft) 95,74 %
13.03.2021 10:24 7,4 C 6,7 C 4,5 C 84 % 994,1 hPa 0,0 l/m 0 min 0 min 93 W/m 35,4 km/h (5 Bft) 54,35 %
13.03.2021 10:26 7,4 C 6,7 C 4,5 C 84 % 994,1 hPa 0,0 l/m 0 min 0 min 40 W/m 25,7 km/h (4 Bft) 95,74 %
13.03.2021 10:28 7,4 C 6,7 C 4,5 C 84 % 994,1 hPa 0,0 l/m 0 min 0 min 39 W/m 32,2 km/h (5 Bft) 95,74 %
13.03.2021 10:30 7,4 C 6,7 C 4,5 C 84 % 994,1 hPa 0,0 l/m 0 min 2 min 59 W/m 32,2 km/h (5 Bft) 95,65 %
13.03.2021 10:32 7,4 C 6,7 C 4,5 C 84 % 994,2 hPa 0,0 l/m 0 min 2 min 65 W/m 35,4 km/h (5 Bft) 95,74 %
13.03.2021 10:34 7,4 C 6,7 C 4,5 C 85 % 994,2 hPa 0,0 l/m 0 min 2 min 83 W/m 29,0 km/h (5 Bft) 95,74 %
13.03.2021 10:36 7,4 C 6,7 C 4,5 C 85 % 994,2 hPa 0,0 l/m 0 min 2 min 103 W/m 25,7 km/h (4 Bft) 91,49 %
13.03.2021 10:38 7,4 C 6,7 C 4,5 C 85 % 994,1 hPa 0,0 l/m 0 min 2 min 102 W/m 32,2 km/h (5 Bft) 91,49 %
13.03.2021 10:40 7,4 C 7,2 C 4,5 C 84 % 994,2 hPa 0,0 l/m 0 min 0 min 79 W/m 32,2 km/h (5 Bft) 95,74 %
13.03.2021 10:42 7,4 C 7,2 C 4,5 C 84 % 994,2 hPa 0,0 l/m 0 min 0 min 73 W/m 29,0 km/h (5 Bft) 97,83 %
13.03.2021 10:44 7,4 C 7,2 C 4,5 C 84 % 994,2 hPa 0,0 l/m 0 min 0 min 75 W/m 25,7 km/h (4 Bft) 100,00 %
13.03.2021 10:46 7,4 C 7,2 C 4,5 C 83 % 994,1 hPa 0,0 l/m 0 min 0 min 87 W/m 38,6 km/h (5 Bft) 95,74 %
13.03.2021 10:48 7,5 C 7,2 C 4,5 C 83 % 994,1 hPa 0,0 l/m 0 min 0 min 94 W/m 19,3 km/h (3 Bft) 95,74 %
13.03.2021 10:50 7,5 C 7,2 C 4,5 C 83 % 994,1 hPa 0,0 l/m 0 min 0 min 119 W/m 45,1 km/h (6 Bft) 95,74 %
13.03.2021 10:52 7,5 C 7,2 C 4,5 C 82 % 994,2 hPa 0,0 l/m 0 min 0 min 98 W/m 41,8 km/h (6 Bft) 95,74 %
13.03.2021 10:54 7,6 C 7,2 C 4,5 C 82 % 994,2 hPa 0,0 l/m 0 min 0 min 113 W/m 29,0 km/h (5 Bft) 93,48 %
13.03.2021 10:56 7,6 C 7,8 C 5,0 C 81 % 994,2 hPa 0,0 l/m 0 min 0 min 159 W/m 25,7 km/h (4 Bft) 95,74 %
13.03.2021 10:58 7,8 C 7,8 C 5,0 C 81 % 994,2 hPa 0,0 l/m 0 min 0 min 150 W/m 25,7 km/h (4 Bft) 93,62 %
13.03.2021 11:00 7,8 C 7,8 C 5,0 C 81 % 994,2 hPa 0,0 l/m 0 min 0 min 147 W/m 22,5 km/h (4 Bft) 95,74 %
13.03.2021 11:02 7,9 C 7,8 C 5,0 C 81 % 994,1 hPa 0,0 l/m 0 min 0 min 154 W/m 41,8 km/h (6 Bft) 93,75 %
13.03.2021 11:04 7,9 C 7,8 C 5,0 C 80 % 994,1 hPa 0,0 l/m 0 min 0 min 186 W/m 51,5 km/h (7 Bft) 95,65 %
13.03.2021 11:06 8,0 C 8,3 C 5,0 C 80 % 994,2 hPa 0,0 l/m 0 min 0 min 215 W/m 38,6 km/h (5 Bft) 93,62 %
13.03.2021 11:08 8,0 C 8,3 C 5,6 C 80 % 994,1 hPa 0,0 l/m 2 min 0 min 288 W/m 25,7 km/h (4 Bft) 95,74 %
13.03.2021 11:10 8,2 C 9,4 C 6,7 C 79 % 994,2 hPa 0,0 l/m 2 min 0 min 364 W/m 41,8 km/h (6 Bft) 95,74 %
13.03.2021 11:12 8,3 C 10,0 C 7,3 C 79 % 994,2 hPa 0,0 l/m 2 min 0 min 367 W/m 29,0 km/h (5 Bft) 93,62 %
13.03.2021 11:14 8,5 C 10,0 C 6,7 C 80 % 994,1 hPa 0,0 l/m 2 min 0 min 362 W/m 48,3 km/h (6 Bft) 95,74 %
13.03.2021 11:16 8,6 C 10,0 C 7,3 C 79 % 994,2 hPa 0,0 l/m 2 min 0 min 343 W/m 32,2 km/h (5 Bft) 95,65 %
13.03.2021 11:18 8,6 C 9,4 C 6,7 C 78 % 994,2 hPa 0,0 l/m 0 min 0 min 236 W/m 41,8 km/h (6 Bft) 97,87 %
13.03.2021 11:20 8,6 C 10,0 C 6,7 C 78 % 994,2 hPa 0,0 l/m 2 min 0 min 297 W/m 35,4 km/h (5 Bft) 97,87 %
13.03.2021 11:22 8,7 C 10,0 C 7,3 C 77 % 994,1 hPa 0,0 l/m 2 min 0 min 347 W/m 54,7 km/h (7 Bft) 97,87 %
13.03.2021 11:24 8,8 C 9,4 C 6,7 C 77 % 994,1 hPa 0,0 l/m 2 min 0 min 359 W/m 41,8 km/h (6 Bft) 97,87 %
13.03.2021 11:26 8,8 C 10,0 C 6,7 C 77 % 994,1 hPa 0,0 l/m 2 min 0 min 359 W/m 61,2 km/h (7 Bft) 97,87 %
13.03.2021 11:28 8,7 C 10,0 C 6,7 C 77 % 994,1 hPa 0,0 l/m 2 min 0 min 359 W/m 32,2 km/h (5 Bft) 100,00 %
13.03.2021 11:30 8,8 C 9,4 C 6,1 C 77 % 994,3 hPa 0,0 l/m 0 min 0 min 265 W/m 32,2 km/h (5 Bft) 100,00 %
13.03.2021 11:32 8,7 C 9,4 C 6,1 C 77 % 994,0 hPa 0,0 l/m 0 min 0 min 228 W/m 38,6 km/h (5 Bft) 100,00 %
13.03.2021 11:34 8,7 C 9,4 C 6,7 C 77 % 994,2 hPa 0,0 l/m 2 min 0 min 294 W/m 48,3 km/h (6 Bft) 100,00 %
13.03.2021 11:36 8,8 C 11,1 C 8,4 C 76 % 993,9 hPa 0,0 l/m 2 min 0 min 720 W/m 32,2 km/h (5 Bft) 97,87 %
13.03.2021 11:38 9,0 C 12,2 C 9,5 C 77 % 993,9 hPa 0,0 l/m 2 min 0 min 724 W/m 29,0 km/h (5 Bft) 100,00 %
13.03.2021 11:40 9,1 C 13,3 C 10,0 C 76 % 993,9 hPa 0,0 l/m 2 min 0 min 671 W/m 41,8 km/h (6 Bft) 100,00 %
13.03.2021 11:42 9,2 C 12,2 C 9,5 C 75 % 993,8 hPa 0,0 l/m 2 min 0 min 640 W/m 41,8 km/h (6 Bft) 97,87 %
13.03.2021 11:44 9,2 C 11,1 C 7,8 C 75 % 993,9 hPa 0,0 l/m 0 min 0 min 271 W/m 25,7 km/h (4 Bft) 100,00 %
13.03.2021 11:46 9,1 C 9,4 C 6,1 C 74 % 993,9 hPa 0,0 l/m 0 min 0 min 95 W/m 48,3 km/h (6 Bft) 97,87 %
13.03.2021 11:48 9,0 C 8,9 C 5,6 C 75 % 993,9 hPa 0,0 l/m 0 min 2 min 63 W/m 38,6 km/h (5 Bft) 100,00 %
13.03.2021 11:50 8,8 C 7,8 C 5,0 C 78 % 993,9 hPa 0,0 l/m 0 min 2 min 102 W/m 45,1 km/h (6 Bft) 100,00 %
13.03.2021 11:52 8,4 C 7,2 C 4,5 C 79 % 994,1 hPa 0,2 l/m 0 min 2 min 122 W/m 25,7 km/h (4 Bft) 97,83 %
13.03.2021 11:54 8,1 C 7,2 C 4,5 C 80 % 994,1 hPa 0,0 l/m 0 min 2 min 118 W/m 32,2 km/h (5 Bft) 100,00 %
13.03.2021 11:56 7,9 C 7,2 C 4,5 C 82 % 994,3 hPa 0,0 l/m 0 min 2 min 199 W/m 38,6 km/h (5 Bft) 100,00 %
13.03.2021 11:58 7,8 C 8,3 C 5,0 C 83 % 994,2 hPa 0,0 l/m 0 min 2 min 281 W/m 22,5 km/h (4 Bft) 100,00 %
13.03.2021 12:00 7,9 C 9,4 C 6,1 C 84 % 994,2 hPa 0,0 l/m 0 min 2 min 283 W/m 19,3 km/h (3 Bft) 100,00 %
13.03.2021 12:02 8,0 C 10,6 C 6,7 C 84 % 994,2 hPa 0,0 l/m 2 min 2 min 415 W/m 22,5 km/h (4 Bft) 97,87 %
13.03.2021 12:04 8,1 C 10,6 C 6,7 C 84 % 994,1 hPa 0,0 l/m 2 min 2 min 582 W/m 35,4 km/h (5 Bft) 73,91 %
13.03.2021 12:08 8,5 C 10,0 C 6,7 C 83 % 994,2 hPa 0,0 l/m 0 min 0 min 274 W/m 38,6 km/h (5 Bft) 90,59 %
13.03.2021 12:10 8,5 C 9,4 C 6,1 C 80 % 994,1 hPa 0,0 l/m 2 min 2 min 354 W/m 61,2 km/h (7 Bft) 100,00 %
13.03.2021 12:12 8,6 C 9,4 C 6,7 C 80 % 993,9 hPa 0,0 l/m 2 min 0 min 649 W/m 38,6 km/h (5 Bft) 100,00 %
13.03.2021 12:14 8,8 C 10,0 C 7,3 C 80 % 993,9 hPa 0,0 l/m 2 min 0 min 641 W/m 32,2 km/h (5 Bft) 100,00 %
13.03.2021 12:16 8,9 C 10,0 C 7,8 C 77 % 993,9 hPa 0,0 l/m 2 min 0 min 645 W/m 45,1 km/h (6 Bft) 100,00 %
13.03.2021 12:18 9,0 C 10,6 C 8,4 C 77 % 994,0 hPa 0,0 l/m 2 min 0 min 649 W/m 25,7 km/h (4 Bft) 97,83 %
13.03.2021 12:20 9,3 C 11,1 C 8,9 C 77 % 993,9 hPa 0,0 l/m 2 min 0 min 659 W/m 29,0 km/h (5 Bft) 100,00 %
13.03.2021 12:22 9,4 C 11,1 C 9,5 C 76 % 993,8 hPa 0,0 l/m 2 min 0 min 653 W/m 22,5 km/h (4 Bft) 100,00 %
13.03.2021 12:24 9,5 C 11,7 C 9,5 C 76 % 993,9 hPa 0,0 l/m 2 min 0 min 702 W/m 29,0 km/h (5 Bft) 100,00 %
13.03.2021 12:26 9,5 C 10,6 C 8,9 C 75 % 993,9 hPa 0,0 l/m 2 min 0 min 552 W/m 41,8 km/h (6 Bft) 100,00 %
13.03.2021 12:28 9,4 C 10,0 C 8,4 C 74 % 994,0 hPa 0,0 l/m 0 min 0 min 201 W/m 35,4 km/h (5 Bft) 100,00 %
13.03.2021 12:30 9,3 C 9,4 C 7,8 C 74 % 993,9 hPa 0,0 l/m 0 min 0 min 213 W/m 51,5 km/h (7 Bft) 100,00 %
13.03.2021 12:32 9,2 C 8,9 C 7,3 C 75 % 994,1 hPa 0,0 l/m 0 min 0 min 174 W/m 29,0 km/h (5 Bft) 97,87 %
13.03.2021 12:34 9,0 C 8,9 C 7,3 C 75 % 994,0 hPa 0,0 l/m 0 min 0 min 203 W/m 22,5 km/h (4 Bft) 100,00 %
13.03.2021 12:36 9,0 C 10,0 C 7,8 C 76 % 994,2 hPa 0,0 l/m 0 min 0 min 204 W/m 32,2 km/h (5 Bft) 100,00 %
13.03.2021 12:38 8,9 C 10,0 C 7,3 C 77 % 994,4 hPa 0,0 l/m 0 min 0 min 204 W/m 57,9 km/h (7 Bft) 100,00 %
13.03.2021 12:40 8,8 C 11,7 C 7,3 C 78 % 994,3 hPa 0,0 l/m 2 min 0 min 451 W/m 29,0 km/h (5 Bft) 100,00 %
13.03.2021 12:42 8,7 C 12,8 C 7,3 C 78 % 994,2 hPa 0,0 l/m 2 min 0 min 658 W/m 35,4 km/h (5 Bft) 100,00 %
13.03.2021 12:44 8,8 C 13,3 C 7,3 C 80 % 994,1 hPa 0,0 l/m 2 min 0 min 647 W/m 29,0 km/h (5 Bft) 97,87 %
13.03.2021 12:46 8,8 C 13,9 C 7,3 C 79 % 994,0 hPa 0,0 l/m 2 min 0 min 647 W/m 32,2 km/h (5 Bft) 100,00 %
13.03.2021 12:48 8,9 C 15,0 C 7,3 C 80 % 994,0 hPa 0,0 l/m 2 min 0 min 665 W/m 22,5 km/h (4 Bft) 100,00 %
13.03.2021 12:50 9,1 C 15,6 C 7,8 C 80 % 994,0 hPa 0,0 l/m 2 min 0 min 717 W/m 22,5 km/h (4 Bft) 97,87 %
13.03.2021 12:52 9,3 C 14,4 C 7,8 C 79 % 994,0 hPa 0,0 l/m 2 min 0 min 702 W/m 22,5 km/h (4 Bft) 97,87 %
13.03.2021 12:54 9,3 C 12,2 C 7,8 C 78 % 993,9 hPa 0,0 l/m 0 min 0 min 257 W/m 35,4 km/h (5 Bft) 97,83 %
13.03.2021 12:56 9,3 C 12,8 C 7,8 C 78 % 994,0 hPa 0,0 l/m 2 min 0 min 324 W/m 22,5 km/h (4 Bft) 97,87 %
13.03.2021 12:58 9,4 C 12,8 C 8,4 C 78 % 994,0 hPa 0,0 l/m 2 min 0 min 339 W/m 38,6 km/h (5 Bft) 100,00 %
13.03.2021 13:00 9,5 C 11,7 C 8,4 C 76 % 993,9 hPa 0,0 l/m 2 min 0 min 339 W/m 38,6 km/h (5 Bft) 100,00 %
13.03.2021 13:02 9,5 C 11,7 C 8,4 C 77 % 993,8 hPa 0,0 l/m 2 min 0 min 352 W/m 22,5 km/h (4 Bft) 100,00 %
13.03.2021 13:04 9,6 C 11,1 C 8,4 C 77 % 993,6 hPa 0,0 l/m 2 min 0 min 352 W/m 35,4 km/h (5 Bft) 100,00 %
13.03.2021 13:06 9,7 C 10,6 C 7,8 C 75 % 993,5 hPa 0,0 l/m 0 min 0 min 176 W/m 38,6 km/h (5 Bft) 97,83 %
13.03.2021 13:08 9,7 C 10,0 C 7,8 C 72 % 993,6 hPa 0,0 l/m 0 min 0 min 131 W/m 35,4 km/h (5 Bft) 100,00 %
13.03.2021 13:10 9,6 C 9,4 C 7,3 C 71 % 993,7 hPa 0,0 l/m 0 min 0 min 136 W/m 32,2 km/h (5 Bft) 95,74 %
13.03.2021 13:12 9,6 C 9,4 C 7,3 C 72 % 993,7 hPa 0,0 l/m 0 min 0 min 94 W/m 32,2 km/h (5 Bft) 95,74 %
13.03.2021 13:14 9,5 C 8,9 C 7,3 C 71 % 993,7 hPa 0,0 l/m 0 min 0 min 55 W/m 35,4 km/h (5 Bft) 95,74 %
13.03.2021 13:16 9,5 C 8,9 C 6,7 C 71 % 993,8 hPa 0,0 l/m 0 min 0 min 28 W/m 41,8 km/h (6 Bft) 93,48 %
13.03.2021 13:18 9,4 C 8,3 C 6,1 C 73 % 993,9 hPa 0,0 l/m 0 min 2 min 22 W/m 41,8 km/h (6 Bft) 97,87 %
13.03.2021 13:20 9,2 C 7,2 C 5,0 C 75 % 994,0 hPa 0,0 l/m 0 min 2 min 14 W/m 54,7 km/h (7 Bft) 97,87 %
13.03.2021 13:22 9,0 C 6,7 C 4,5 C 77 % 994,2 hPa 0,0 l/m 0 min 2 min 12 W/m 29,0 km/h (5 Bft) 95,74 %
13.03.2021 13:24 8,5 C 6,1 C 3,9 C 80 % 994,4 hPa 0,2 l/m 0 min 2 min 12 W/m 38,6 km/h (5 Bft) 95,74 %
13.03.2021 13:26 7,8 C 5,0 C 3,4 C 81 % 994,8 hPa 0,2 l/m 0 min 2 min 18 W/m 64,4 km/h (8 Bft) 97,87 %
13.03.2021 13:28 7,0 C 5,0 C 2,8 C 83 % 994,5 hPa 0,2 l/m 0 min 2 min 49 W/m 38,6 km/h (5 Bft) 95,56 %
13.03.2021 13:30 6,6 C 7,2 C 3,4 C 87 % 994,4 hPa 0,0 l/m 0 min 2 min 250 W/m 25,7 km/h (4 Bft) 95,74 %
13.03.2021 13:32 6,5 C 8,3 C 3,4 C 88 % 994,2 hPa 0,0 l/m 2 min 2 min 662 W/m 45,1 km/h (6 Bft) 95,74 %
13.03.2021 13:34 6,7 C 9,4 C 3,9 C 89 % 994,2 hPa 0,0 l/m 2 min 0 min 646 W/m 32,2 km/h (5 Bft) 93,62 %
13.03.2021 13:36 6,8 C 10,0 C 3,9 C 90 % 994,2 hPa 0,0 l/m 2 min 0 min 647 W/m 35,4 km/h (5 Bft) 95,74 %
13.03.2021 13:38 7,0 C 11,1 C 4,5 C 90 % 994,2 hPa 0,0 l/m 2 min 0 min 667 W/m 35,4 km/h (5 Bft) 95,74 %
13.03.2021 13:40 7,3 C 11,1 C 4,5 C 90 % 994,2 hPa 0,0 l/m 2 min 0 min 700 W/m 38,6 km/h (5 Bft) 95,65 %
13.03.2021 13:42 7,5 C 12,2 C 4,5 C 90 % 994,1 hPa 0,0 l/m 2 min 0 min 694 W/m 32,2 km/h (5 Bft) 93,62 %
13.03.2021 13:44 7,8 C 12,2 C 5,0 C 89 % 994,1 hPa 0,0 l/m 2 min 0 min 740 W/m 22,5 km/h (4 Bft) 95,74 %
13.03.2021 13:46 8,0 C 12,8 C 5,0 C 89 % 994,2 hPa 0,0 l/m 2 min 0 min 718 W/m 35,4 km/h (5 Bft) 95,74 %
13.03.2021 13:48 8,3 C 13,3 C 5,6 C 89 % 994,2 hPa 0,0 l/m 2 min 0 min 728 W/m 22,5 km/h (4 Bft) 95,74 %
13.03.2021 13:50 8,4 C 11,1 C 5,6 C 88 % 994,2 hPa 0,0 l/m 2 min 0 min 505 W/m 29,0 km/h (5 Bft) 93,62 %
13.03.2021 13:52 8,5 C 9,4 C 5,6 C 87 % 994,2 hPa 0,0 l/m 0 min 0 min 222 W/m 22,5 km/h (4 Bft) 95,65 %
13.03.2021 13:54 8,5 C 8,9 C 5,6 C 86 % 994,2 hPa 0,0 l/m 0 min 0 min 254 W/m 29,0 km/h (5 Bft) 95,74 %
13.03.2021 13:56 8,5 C 8,9 C 5,0 C 85 % 994,2 hPa 0,0 l/m 0 min 0 min 211 W/m 45,1 km/h (6 Bft) 95,74 %
13.03.2021 13:58 8,6 C 10,6 C 5,6 C 84 % 994,2 hPa 0,0 l/m 0 min 0 min 214 W/m 41,8 km/h (6 Bft) 95,74 %
13.03.2021 14:00 8,8 C 11,7 C 5,6 C 84 % 994,0 hPa 0,0 l/m 2 min 0 min 281 W/m 45,1 km/h (6 Bft) 95,74 %
13.03.2021 14:02 8,9 C 12,2 C 5,6 C 83 % 994,2 hPa 0,0 l/m 2 min 0 min 674 W/m 54,7 km/h (7 Bft) 93,62 %
13.03.2021 14:04 9,0 C 12,8 C 5,6 C 82 % 994,2 hPa 0,0 l/m 2 min 0 min 619 W/m 41,8 km/h (6 Bft) 95,65 %
13.03.2021 14:06 9,2 C 13,3 C 5,6 C 81 % 994,1 hPa 0,0 l/m 2 min 0 min 677 W/m 29,0 km/h (5 Bft) 95,74 %
13.03.2021 14:08 9,4 C 13,9 C 5,6 C 81 % 994,2 hPa 0,0 l/m 2 min 0 min 698 W/m 48,3 km/h (6 Bft) 95,74 %
13.03.2021 14:10 9,4 C 13,9 C 5,6 C 80 % 994,0 hPa 0,0 l/m 2 min 0 min 721 W/m 41,8 km/h (6 Bft) 93,62 %
13.03.2021 14:12 9,5 C 13,9 C 5,6 C 78 % 994,1 hPa 0,0 l/m 2 min 0 min 738 W/m 38,6 km/h (5 Bft) 93,62 %
13.03.2021 14:14 9,6 C 12,8 C 5,6 C 77 % 994,1 hPa 0,0 l/m 2 min 0 min 524 W/m 29,0 km/h (5 Bft) 95,74 %
13.03.2021 14:16 9,5 C 11,1 C 5,6 C 77 % 994,0 hPa 0,0 l/m 0 min 0 min 237 W/m 41,8 km/h (6 Bft) 95,65 %
13.03.2021 14:18 9,4 C 10,0 C 5,0 C 76 % 994,1 hPa 0,0 l/m 0 min 0 min 127 W/m 35,4 km/h (5 Bft) 95,74 %
13.03.2021 14:20 9,2 C 9,4 C 5,0 C 75 % 994,0 hPa 0,0 l/m 0 min 0 min 122 W/m 32,2 km/h (5 Bft) 95,74 %
13.03.2021 14:22 9,1 C 10,0 C 5,0 C 76 % 994,0 hPa 0,0 l/m 0 min 0 min 163 W/m 29,0 km/h (5 Bft) 95,74 %
13.03.2021 14:24 9,1 C 11,7 C 5,6 C 77 % 994,0 hPa 0,0 l/m 2 min 0 min 357 W/m 29,0 km/h (5 Bft) 97,87 %
13.03.2021 14:26 9,3 C 11,7 C 5,6 C 77 % 994,1 hPa 0,0 l/m 2 min 0 min 607 W/m 38,6 km/h (5 Bft) 97,87 %
13.03.2021 14:28 9,2 C 10,0 C 5,6 C 75 % 994,2 hPa 0,0 l/m 0 min 0 min 122 W/m 48,3 km/h (6 Bft) 97,83 %
13.03.2021 14:30 9,1 C 8,9 C 5,0 C 76 % 994,2 hPa 0,0 l/m 0 min 2 min 102 W/m 29,0 km/h (5 Bft) 97,87 %
13.03.2021 14:32 9,0 C 8,3 C 5,0 C 76 % 994,4 hPa 0,0 l/m 0 min 2 min 85 W/m 38,6 km/h (5 Bft) 97,87 %
13.03.2021 14:34 8,9 C 8,3 C 5,0 C 78 % 994,6 hPa 0,0 l/m 0 min 2 min 55 W/m 19,3 km/h (3 Bft) 97,87 %
13.03.2021 14:36 8,7 C 7,8 C 4,5 C 79 % 994,5 hPa 0,0 l/m 0 min 2 min 55 W/m 29,0 km/h (5 Bft) 95,74 %
13.03.2021 14:38 8,4 C 7,2 C 4,5 C 80 % 994,4 hPa 0,0 l/m 0 min 2 min 93 W/m 25,7 km/h (4 Bft) 97,87 %
13.03.2021 14:40 8,2 C 7,8 C 4,5 C 81 % 994,4 hPa 0,0 l/m 0 min 2 min 155 W/m 22,5 km/h (4 Bft) 97,83 %
13.03.2021 14:42 8,1 C 8,9 C 4,5 C 83 % 994,5 hPa 0,0 l/m 0 min 2 min 204 W/m 19,3 km/h (3 Bft) 93,62 %
13.03.2021 14:44 8,3 C 11,1 C 5,0 C 83 % 994,4 hPa 0,0 l/m 2 min 2 min 479 W/m 32,2 km/h (5 Bft) 97,87 %
13.03.2021 14:46 8,5 C 12,8 C 5,0 C 83 % 994,5 hPa 0,0 l/m 2 min 2 min 614 W/m 29,0 km/h (5 Bft) 97,87 %
13.03.2021 14:48 8,7 C 12,8 C 5,6 C 83 % 994,5 hPa 0,0 l/m 2 min 2 min 516 W/m 25,7 km/h (4 Bft) 95,74 %
13.03.2021 14:50 8,8 C 11,1 C 5,6 C 83 % 994,5 hPa 0,0 l/m 2 min 0 min 362 W/m 25,7 km/h (4 Bft) 97,87 %
13.03.2021 14:52 8,9 C 10,6 C 5,6 C 82 % 994,4 hPa 0,0 l/m 2 min 0 min 293 W/m 19,3 km/h (3 Bft) 97,83 %
13.03.2021 14:54 9,0 C 12,2 C 5,6 C 82 % 994,5 hPa 0,0 l/m 2 min 0 min 418 W/m 19,3 km/h (3 Bft) 95,74 %
13.03.2021 14:56 9,1 C 12,2 C 6,1 C 81 % 994,4 hPa 0,0 l/m 2 min 0 min 483 W/m 22,5 km/h (4 Bft) 95,74 %
13.03.2021 14:58 9,3 C 12,2 C 6,1 C 81 % 994,5 hPa 0,0 l/m 2 min 0 min 419 W/m 25,7 km/h (4 Bft) 97,87 %
13.03.2021 15:00 9,3 C 10,6 C 6,1 C 80 % 994,4 hPa 0,0 l/m 0 min 0 min 159 W/m 35,4 km/h (5 Bft) 95,74 %
13.03.2021 15:02 9,3 C 10,0 C 6,1 C 79 % 994,5 hPa 0,0 l/m 0 min 0 min 102 W/m 19,3 km/h (3 Bft) 100,00 %
13.03.2021 15:04 9,1 C 9,4 C 6,1 C 77 % 994,6 hPa 0,0 l/m 0 min 0 min 96 W/m 35,4 km/h (5 Bft) 100,00 %
13.03.2021 15:06 9,0 C 8,9 C 6,1 C 76 % 994,6 hPa 0,0 l/m 0 min 0 min 87 W/m 38,6 km/h (5 Bft) 100,00 %
13.03.2021 15:08 9,0 C 8,9 C 6,1 C 76 % 994,5 hPa 0,0 l/m 0 min 2 min 74 W/m 25,7 km/h (4 Bft) 97,87 %
13.03.2021 15:10 8,9 C 7,8 C 5,0 C 77 % 994,8 hPa 0,2 l/m 0 min 2 min 81 W/m 25,7 km/h (4 Bft) 97,56 %
13.03.2021 15:12 8,6 C 7,2 C 3,9 C 78 % 994,8 hPa 0,0 l/m 0 min 2 min 92 W/m 29,0 km/h (5 Bft) 100,00 %
13.03.2021 15:14 8,2 C 6,7 C 3,9 C 80 % 994,9 hPa 0,0 l/m 0 min 2 min 110 W/m 29,0 km/h (5 Bft) 100,00 %
13.03.2021 15:16 7,9 C 6,7 C 3,9 C 82 % 994,9 hPa 0,0 l/m 0 min 2 min 88 W/m 19,3 km/h (3 Bft) 100,00 %
13.03.2021 15:18 7,6 C 6,7 C 3,9 C 82 % 995,1 hPa 0,0 l/m 0 min 2 min 82 W/m 45,1 km/h (6 Bft) 100,00 %
13.03.2021 15:20 7,5 C 6,7 C 3,9 C 83 % 995,2 hPa 0,0 l/m 0 min 2 min 83 W/m 32,2 km/h (5 Bft) 97,87 %
13.03.2021 15:22 7,3 C 6,7 C 3,9 C 84 % 995,1 hPa 0,2 l/m 0 min 2 min 123 W/m 25,7 km/h (4 Bft) 100,00 %
13.03.2021 15:24 7,2 C 6,7 C 3,9 C 85 % 995,0 hPa 0,0 l/m 0 min 2 min 116 W/m 22,5 km/h (4 Bft) 100,00 %
13.03.2021 15:26 7,1 C 6,7 C 3,9 C 85 % 995,1 hPa 0,0 l/m 0 min 2 min 115 W/m 19,3 km/h (3 Bft) 100,00 %
13.03.2021 15:28 7,2 C 7,8 C 3,9 C 86 % 995,3 hPa 0,0 l/m 2 min 2 min 270 W/m 16,1 km/h (3 Bft) 100,00 %
13.03.2021 15:30 7,3 C 7,8 C 3,9 C 86 % 995,2 hPa 0,0 l/m 2 min 0 min 234 W/m 22,5 km/h (4 Bft) 100,00 %
13.03.2021 15:32 7,4 C 7,8 C 4,5 C 86 % 995,2 hPa 0,0 l/m 0 min 0 min 175 W/m 41,8 km/h (6 Bft) 100,00 %
13.03.2021 15:34 7,5 C 7,2 C 4,5 C 85 % 995,2 hPa 0,0 l/m 0 min 0 min 162 W/m 41,8 km/h (6 Bft) 100,00 %
13.03.2021 15:36 7,6 C 7,2 C 4,5 C 85 % 995,3 hPa 0,0 l/m 0 min 0 min 150 W/m 22,5 km/h (4 Bft) 100,00 %
13.03.2021 15:38 7,8 C 7,8 C 4,5 C 85 % 995,3 hPa 0,0 l/m 0 min 0 min 139 W/m 22,5 km/h (4 Bft) 100,00 %
13.03.2021 15:40 7,8 C 7,8 C 4,5 C 84 % 995,3 hPa 0,0 l/m 0 min 0 min 119 W/m 25,7 km/h (4 Bft) 97,87 %
13.03.2021 15:42 7,9 C 7,8 C 4,5 C 84 % 995,3 hPa 0,0 l/m 0 min 0 min 103 W/m 22,5 km/h (4 Bft) 97,87 %
13.03.2021 15:44 7,9 C 7,8 C 4,5 C 84 % 995,4 hPa 0,0 l/m 0 min 0 min 94 W/m 16,1 km/h (3 Bft) 100,00 %
13.03.2021 15:46 7,9 C 7,2 C 4,5 C 83 % 995,4 hPa 0,0 l/m 0 min 0 min 78 W/m 22,5 km/h (4 Bft) 100,00 %
13.03.2021 15:48 8,0 C 7,2 C 5,0 C 83 % 995,4 hPa 0,0 l/m 0 min 0 min 59 W/m 22,5 km/h (4 Bft) 100,00 %
13.03.2021 15:50 8,0 C 7,2 C 4,5 C 83 % 995,3 hPa 0,0 l/m 0 min 0 min 48 W/m 16,1 km/h (3 Bft) 95,65 %
13.03.2021 15:52 8,0 C 7,2 C 5,0 C 83 % 995,3 hPa 0,0 l/m 0 min 2 min 32 W/m 12,9 km/h (3 Bft) 100,00 %
13.03.2021 15:54 8,0 C 7,2 C 4,5 C 83 % 995,3 hPa 0,0 l/m 0 min 0 min 17 W/m 19,3 km/h (3 Bft) 100,00 %
13.03.2021 15:56 8,0 C 7,2 C 5,0 C 82 % 995,7 hPa 0,0 l/m 0 min 0 min 7 W/m 16,1 km/h (3 Bft) 100,00 %
13.03.2021 15:58 8,0 C 6,7 C 4,5 C 83 % 996,2 hPa 0,0 l/m 0 min 2 min 5 W/m 38,6 km/h (5 Bft) 100,00 %
13.03.2021 16:00 7,0 C 4,4 C 2,3 C 80 % 996,3 hPa 0,0 l/m 0 min 2 min 2 W/m 48,3 km/h (6 Bft) 100,00 %
13.03.2021 16:02 5,8 C 2,8 C 0,6 C 80 % 996,5 hPa 0,0 l/m 0 min 2 min 1 W/m 48,3 km/h (6 Bft) 100,00 %
13.03.2021 16:04 4,8 C 2,2 C 0,6 C 82 % 996,5 hPa 0,0 l/m 0 min 2 min 8 W/m 45,1 km/h (6 Bft) 100,00 %
13.03.2021 16:06 4,1 C 2,2 C 0,6 C 84 % 996,2 hPa 0,0 l/m 0 min 2 min 9 W/m 22,5 km/h (4 Bft) 97,87 %
13.03.2021 16:08 3,7 C 2,2 C 0,0 C 87 % 996,2 hPa 0,0 l/m 0 min 2 min 8 W/m 35,4 km/h (5 Bft) 100,00 %
13.03.2021 16:10 3,5 C 2,2 C 0,0 C 88 % 996,1 hPa 0,2 l/m 0 min 2 min 13 W/m 32,2 km/h (5 Bft) 100,00 %
13.03.2021 16:12 3,4 C 2,8 C 0,6 C 89 % 995,8 hPa 0,2 l/m 0 min 2 min 72 W/m 29,0 km/h (5 Bft) 100,00 %
13.03.2021 16:14 3,4 C 3,9 C 0,6 C 90 % 995,9 hPa 0,0 l/m 2 min 2 min 255 W/m 29,0 km/h (5 Bft) 97,83 %
13.03.2021 16:16 3,5 C 5,0 C 1,1 C 90 % 995,9 hPa 0,2 l/m 2 min 2 min 340 W/m 16,1 km/h (3 Bft) 100,00 %
13.03.2021 16:18 3,6 C 5,6 C 1,1 C 91 % 995,9 hPa 0,0 l/m 2 min 0 min 441 W/m 12,9 km/h (3 Bft) 97,87 %
13.03.2021 16:20 3,8 C 5,6 C 1,7 C 91 % 996,1 hPa 0,2 l/m 2 min 2 min 442 W/m 12,9 km/h (3 Bft) 95,74 %
13.03.2021 16:22 3,9 C 5,0 C 1,7 C 92 % 996,2 hPa 0,0 l/m 2 min 0 min 181 W/m 12,9 km/h (3 Bft) 97,87 %
13.03.2021 16:24 4,0 C 4,4 C 1,7 C 92 % 996,1 hPa 0,0 l/m 0 min 0 min 130 W/m 16,1 km/h (3 Bft) 97,83 %
13.03.2021 16:26 4,1 C 4,4 C 1,7 C 92 % 996,1 hPa 0,0 l/m 0 min 2 min 122 W/m 16,1 km/h (3 Bft) 95,74 %
13.03.2021 16:28 4,2 C 4,4 C 1,7 C 92 % 996,1 hPa 0,2 l/m 0 min 0 min 119 W/m 16,1 km/h (3 Bft) 89,36 %
13.03.2021 16:30 4,3 C 4,4 C 2,3 C 92 % 996,1 hPa 0,0 l/m 0 min 0 min 102 W/m 12,9 km/h (3 Bft) 95,74 %
13.03.2021 16:32 4,4 C 4,4 C 2,3 C 92 % 996,2 hPa 0,0 l/m 0 min 0 min 101 W/m 12,9 km/h (3 Bft) 95,74 %
13.03.2021 16:34 4,5 C 4,4 C 2,3 C 92 % 996,2 hPa 0,0 l/m 0 min 0 min 105 W/m 19,3 km/h (3 Bft) 95,74 %
13.03.2021 16:36 4,5 C 4,4 C 2,3 C 92 % 996,3 hPa 0,2 l/m 0 min 0 min 113 W/m 6,4 km/h (2 Bft) 95,74 %
13.03.2021 16:38 4,6 C 5,0 C 2,3 C 92 % 996,3 hPa 0,0 l/m 0 min 0 min 110 W/m 16,1 km/h (3 Bft) 95,65 %
13.03.2021 16:40 4,8 C 5,0 C 2,8 C 92 % 996,3 hPa 0,0 l/m 0 min 0 min 109 W/m 9,7 km/h (2 Bft) 93,62 %
13.03.2021 16:42 4,9 C 5,0 C 2,8 C 92 % 996,4 hPa 0,0 l/m 0 min 0 min 108 W/m 12,9 km/h (3 Bft) 93,62 %
13.03.2021 16:44 5,0 C 5,0 C 2,8 C 92 % 996,4 hPa 0,0 l/m 0 min 0 min 89 W/m 16,1 km/h (3 Bft) 93,62 %
13.03.2021 16:46 5,0 C 5,0 C 2,8 C 91 % 996,4 hPa 0,2 l/m 0 min 0 min 91 W/m 12,9 km/h (3 Bft) 95,74 %
13.03.2021 16:48 5,1 C 5,0 C 2,8 C 92 % 996,4 hPa 0,0 l/m 0 min 0 min 102 W/m 12,9 km/h (3 Bft) 95,74 %
13.03.2021 16:50 5,2 C 5,0 C 2,8 C 91 % 996,4 hPa 0,0 l/m 0 min 0 min 118 W/m 12,9 km/h (3 Bft) 95,65 %
13.03.2021 16:52 5,3 C 5,6 C 2,8 C 91 % 996,4 hPa 0,0 l/m 0 min 0 min 121 W/m 16,1 km/h (3 Bft) 95,74 %
13.03.2021 16:54 5,4 C 5,6 C 2,8 C 91 % 996,5 hPa 0,2 l/m 0 min 0 min 84 W/m 12,9 km/h (3 Bft) 93,62 %
13.03.2021 16:56 5,5 C 5,6 C 2,8 C 91 % 996,5 hPa 0,0 l/m 0 min 0 min 88 W/m 12,9 km/h (3 Bft) 95,74 %
13.03.2021 16:58 5,5 C 5,6 C 3,4 C 91 % 996,4 hPa 0,0 l/m 0 min 0 min 118 W/m 9,7 km/h (2 Bft) 93,62 %
13.03.2021 17:00 5,6 C 6,1 C 3,4 C 91 % 996,4 hPa 0,0 l/m 2 min 0 min 208 W/m 3,2 km/h (1 Bft) 57,45 %
13.03.2021 17:02 5,7 C 5,6 C 3,4 C 91 % 996,4 hPa 0,0 l/m 2 min 0 min 149 W/m 9,7 km/h (2 Bft) 93,48 %
13.03.2021 17:04 5,8 C 5,6 C 3,4 C 91 % 996,5 hPa 0,0 l/m 0 min 0 min 59 W/m 6,4 km/h (2 Bft) 95,74 %
13.03.2021 17:06 5,8 C 5,6 C 3,4 C 90 % 996,5 hPa 0,2 l/m 0 min 0 min 92 W/m 16,1 km/h (3 Bft) 95,74 %
13.03.2021 17:08 5,9 C 5,6 C 3,4 C 90 % 996,6 hPa 0,0 l/m 0 min 0 min 83 W/m 6,4 km/h (2 Bft) 95,74 %
13.03.2021 17:10 5,9 C 6,1 C 3,4 C 90 % 996,5 hPa 0,0 l/m 0 min 0 min 82 W/m 9,7 km/h (2 Bft) 95,74 %
13.03.2021 17:12 6,0 C 6,1 C 3,4 C 90 % 996,5 hPa 0,0 l/m 0 min 0 min 56 W/m 16,1 km/h (3 Bft) 95,65 %
13.03.2021 17:14 6,0 C 6,1 C 3,4 C 90 % 996,5 hPa 0,0 l/m 0 min 0 min 44 W/m 6,4 km/h (2 Bft) 97,87 %
13.03.2021 17:16 6,0 C 6,1 C 3,4 C 90 % 996,5 hPa 0,2 l/m 0 min 0 min 38 W/m 9,7 km/h (2 Bft) 100,00 %
13.03.2021 17:18 6,0 C 6,1 C 3,4 C 90 % 996,6 hPa 0,0 l/m 0 min 0 min 33 W/m 12,9 km/h (3 Bft) 100,00 %
13.03.2021 17:20 6,1 C 6,1 C 3,4 C 89 % 996,5 hPa 0,0 l/m 0 min 0 min 31 W/m 6,4 km/h (2 Bft) 100,00 %
13.03.2021 17:22 6,1 C 6,1 C 3,4 C 89 % 996,5 hPa 0,0 l/m 0 min 0 min 24 W/m 16,1 km/h (3 Bft) 100,00 %
13.03.2021 17:24 6,3 C 6,1 C 3,4 C 89 % 996,6 hPa 0,0 l/m 0 min 0 min 18 W/m 22,5 km/h (4 Bft) 100,00 %
13.03.2021 17:26 6,3 C 6,1 C 3,4 C 88 % 996,7 hPa 0,0 l/m 0 min 0 min 13 W/m 19,3 km/h (3 Bft) 100,00 %
13.03.2021 17:28 6,4 C 6,1 C 3,9 C 88 % 996,9 hPa 0,0 l/m 0 min 0 min 9 W/m 16,1 km/h (3 Bft) 100,00 %
13.03.2021 17:30 6,4 C 6,1 C 3,9 C 87 % 996,9 hPa 0,0 l/m 0 min 0 min 7 W/m 12,9 km/h (3 Bft) 97,87 %
13.03.2021 17:32 6,5 C 6,1 C 3,9 C 87 % 997,0 hPa 0,2 l/m 0 min 0 min 6 W/m 41,8 km/h (6 Bft) 97,87 %
13.03.2021 17:34 6,6 C 6,1 C 3,4 C 85 % 997,0 hPa 0,0 l/m 0 min 2 min 5 W/m 48,3 km/h (6 Bft) 100,00 %
13.03.2021 17:36 6,6 C 5,6 C 3,4 C 84 % 997,0 hPa 0,0 l/m 0 min 2 min 6 W/m 38,6 km/h (5 Bft) 100,00 %
13.03.2021 17:38 6,4 C 5,6 C 3,4 C 84 % 997,0 hPa 0,2 l/m 0 min 2 min 8 W/m 22,5 km/h (4 Bft) 97,87 %
13.03.2021 17:40 6,3 C 5,6 C 3,4 C 84 % 996,9 hPa 0,0 l/m 0 min 2 min 8 W/m 29,0 km/h (5 Bft) 100,00 %
13.03.2021 17:42 6,3 C 5,6 C 3,4 C 84 % 996,7 hPa 0,0 l/m 0 min 2 min 6 W/m 19,3 km/h (3 Bft) 100,00 %
13.03.2021 17:44 6,3 C 5,6 C 3,4 C 84 % 996,6 hPa 0,0 l/m 0 min 2 min 10 W/m 16,1 km/h (3 Bft) 100,00 %
13.03.2021 17:46 6,3 C 5,6 C 3,4 C 84 % 996,6 hPa 0,0 l/m 0 min 2 min 12 W/m 19,3 km/h (3 Bft) 100,00 %
13.03.2021 17:48 6,3 C 5,6 C 3,4 C 83 % 996,6 hPa 0,0 l/m 0 min 2 min 16 W/m 22,5 km/h (4 Bft) 100,00 %
13.03.2021 17:50 6,4 C 6,1 C 3,4 C 82 % 996,6 hPa 0,0 l/m 0 min 2 min 20 W/m 22,5 km/h (4 Bft) 100,00 %
13.03.2021 17:52 6,4 C 6,1 C 3,4 C 82 % 996,7 hPa 0,2 l/m 0 min 0 min 28 W/m 16,1 km/h (3 Bft) 100,00 %
13.03.2021 17:54 6,4 C 6,1 C 3,4 C 81 % 996,6 hPa 0,0 l/m 0 min 0 min 40 W/m 19,3 km/h (3 Bft) 100,00 %
13.03.2021 17:56 6,5 C 6,1 C 3,4 C 81 % 996,7 hPa 0,0 l/m 2 min 0 min 48 W/m 12,9 km/h (3 Bft) 100,00 %
13.03.2021 17:58 6,6 C 6,1 C 3,4 C 80 % 996,7 hPa 0,0 l/m 0 min 2 min 40 W/m 22,5 km/h (4 Bft) 100,00 %
13.03.2021 18:00 6,6 C 6,1 C 3,4 C 80 % 997,0 hPa 0,0 l/m 0 min 2 min 28 W/m 25,7 km/h (4 Bft) 100,00 %
13.03.2021 18:02 6,7 C 6,1 C 3,4 C 80 % 996,9 hPa 0,0 l/m 0 min 2 min 20 W/m 22,5 km/h (4 Bft) 100,00 %
13.03.2021 18:04 6,8 C 6,1 C 3,4 C 80 % 997,0 hPa 0,0 l/m 0 min 2 min 14 W/m 48,3 km/h (6 Bft) 100,00 %
13.03.2021 18:08 6,9 C 6,1 C 3,4 C 79 % 997,0 hPa 0,0 l/m 0 min 0 min 11 W/m 19,3 km/h (3 Bft) 98,94 %
13.03.2021 18:10 6,9 C 6,1 C 3,4 C 80 % 997,1 hPa 0,0 l/m 0 min 0 min 9 W/m 12,9 km/h (3 Bft) 76,60 %
13.03.2021 18:12 6,9 C 6,1 C 3,4 C 80 % 997,1 hPa 0,2 l/m 0 min 0 min 8 W/m 35,4 km/h (5 Bft) 80,43 %
13.03.2021 18:14 6,9 C 6,1 C 3,4 C 80 % 997,1 hPa 0,0 l/m 0 min 0 min 7 W/m 16,1 km/h (3 Bft) 100,00 %
13.03.2021 18:16 6,9 C 6,1 C 3,4 C 80 % 997,2 hPa 0,0 l/m 0 min 0 min 7 W/m 16,1 km/h (3 Bft) 100,00 %
13.03.2021 18:18 6,9 C 6,1 C 3,4 C 80 % 997,2 hPa 0,0 l/m 0 min 0 min 7 W/m 19,3 km/h (3 Bft) 100,00 %
13.03.2021 18:20 6,9 C 6,1 C 3,4 C 79 % 997,2 hPa 0,0 l/m 0 min 0 min 7 W/m 16,1 km/h (3 Bft) 100,00 %
13.03.2021 18:22 7,0 C 6,1 C 3,4 C 78 % 997,2 hPa 0,0 l/m 0 min 0 min 7 W/m 16,1 km/h (3 Bft) 97,87 %
13.03.2021 18:24 7,0 C 6,1 C 3,4 C 77 % 997,3 hPa 0,0 l/m 0 min 2 min 5 W/m 29,0 km/h (5 Bft) 97,87 %
13.03.2021 18:26 7,0 C 6,1 C 3,4 C 77 % 997,3 hPa 0,0 l/m 0 min 2 min 2 W/m 16,1 km/h (3 Bft) 100,00 %
13.03.2021 18:28 7,0 C 6,1 C 3,4 C 77 % 997,3 hPa 0,0 l/m 0 min 0 min 0 W/m 25,7 km/h (4 Bft) 100,00 %
13.03.2021 18:30 7,0 C 6,1 C 3,4 C 77 % 997,3 hPa 0,0 l/m 0 min 0 min 0 W/m 19,3 km/h (3 Bft) 100,00 %
13.03.2021 18:32 6,9 C 6,1 C 3,4 C 77 % 997,2 hPa 0,0 l/m 0 min 0 min 0 W/m 22,5 km/h (4 Bft) 100,00 %
13.03.2021 18:34 6,9 C 6,1 C 3,4 C 77 % 997,4 hPa 0,0 l/m 0 min 0 min 0 W/m 19,3 km/h (3 Bft) 100,00 %
13.03.2021 18:36 6,9 C 6,1 C 3,4 C 77 % 997,6 hPa 0,0 l/m 0 min 2 min 0 W/m 12,9 km/h (3 Bft) 100,00 %
13.03.2021 18:38 6,9 C 6,1 C 3,4 C 77 % 997,9 hPa 0,0 l/m 0 min 0 min 0 W/m 19,3 km/h (3 Bft) 95,74 %
13.03.2021 18:40 6,9 C 6,1 C 3,4 C 78 % 998,1 hPa 0,2 l/m 0 min 2 min 0 W/m 22,5 km/h (4 Bft) 100,00 %
13.03.2021 18:42 6,6 C 5,6 C 2,8 C 80 % 998,1 hPa 0,0 l/m 0 min 2 min 0 W/m 29,0 km/h (5 Bft) 100,00 %
13.03.2021 18:44 6,4 C 5,6 C 2,8 C 80 % 998,1 hPa 0,0 l/m 0 min 2 min 0 W/m 22,5 km/h (4 Bft) 95,65 %
13.03.2021 18:46 6,1 C 5,0 C 2,8 C 81 % 998,3 hPa 0,2 l/m 0 min 2 min 0 W/m 25,7 km/h (4 Bft) 87,23 %
13.03.2021 18:48 6,0 C 5,0 C 2,8 C 82 % 998,2 hPa 0,0 l/m 0 min 2 min 0 W/m 25,7 km/h (4 Bft) 89,36 %
13.03.2021 18:50 5,9 C 5,0 C 2,8 C 83 % 998,3 hPa 0,0 l/m 0 min 2 min 0 W/m 38,6 km/h (5 Bft) 80,85 %
13.03.2021 18:52 5,8 C 5,0 C 2,3 C 83 % 998,4 hPa 0,0 l/m 0 min 2 min 0 W/m 25,7 km/h (4 Bft) 78,72 %
13.03.2021 18:54 5,6 C 5,0 C 2,3 C 84 % 998,4 hPa 0,0 l/m 0 min 2 min 0 W/m 29,0 km/h (5 Bft) 76,60 %
13.03.2021 18:56 5,5 C 5,0 C 2,3 C 83 % 997,8 hPa 0,0 l/m 0 min 2 min 0 W/m 22,5 km/h (4 Bft) 76,09 %
13.03.2021 18:58 5,5 C 5,0 C 2,3 C 83 % 997,6 hPa 0,0 l/m 0 min 2 min 0 W/m 16,1 km/h (3 Bft) 82,98 %
13.03.2021 19:00 5,5 C 5,0 C 2,3 C 83 % 997,7 hPa 0,2 l/m 0 min 2 min 0 W/m 35,4 km/h (5 Bft) 72,34 %
13.03.2021 19:02 5,5 C 5,0 C 2,3 C 82 % 997,9 hPa 0,0 l/m 0 min 2 min 0 W/m 19,3 km/h (3 Bft) 85,11 %
13.03.2021 19:04 5,6 C 5,0 C 2,3 C 81 % 997,9 hPa 0,0 l/m 0 min 2 min 0 W/m 19,3 km/h (3 Bft) 91,49 %
13.03.2021 19:06 5,6 C 5,0 C 2,3 C 81 % 998,0 hPa 0,0 l/m 0 min 2 min 0 W/m 16,1 km/h (3 Bft) 80,85 %
13.03.2021 19:08 5,6 C 5,0 C 2,3 C 81 % 998,1 hPa 0,0 l/m 0 min 2 min 0 W/m 12,9 km/h (3 Bft) 69,57 %
13.03.2021 19:10 5,6 C 5,0 C 2,3 C 82 % 998,1 hPa 0,0 l/m 0 min 0 min 0 W/m 16,1 km/h (3 Bft) 59,57 %
13.03.2021 19:12 5,5 C 4,4 C 2,3 C 83 % 998,1 hPa 0,0 l/m 0 min 2 min 0 W/m 12,9 km/h (3 Bft) 80,85 %
13.03.2021 19:14 5,5 C 4,4 C 2,3 C 83 % 998,2 hPa 0,0 l/m 0 min 0 min 0 W/m 16,1 km/h (3 Bft) 89,36 %
13.03.2021 19:16 5,5 C 4,4 C 2,3 C 84 % 998,2 hPa 0,0 l/m 0 min 0 min 0 W/m 12,9 km/h (3 Bft) 89,36 %
13.03.2021 19:18 5,4 C 4,4 C 2,3 C 84 % 998,1 hPa 0,0 l/m 0 min 0 min 0 W/m 12,9 km/h (3 Bft) 85,11 %
13.03.2021 19:20 5,4 C 4,4 C 2,3 C 84 % 998,1 hPa 0,0 l/m 0 min 0 min 0 W/m 6,4 km/h (2 Bft) 76,09 %
13.03.2021 19:22 5,4 C 4,4 C 2,3 C 85 % 998,1 hPa 0,0 l/m 0 min 2 min 0 W/m 9,7 km/h (2 Bft) 82,98 %
13.03.2021 19:24 5,4 C 4,4 C 2,3 C 85 % 998,1 hPa 0,0 l/m 0 min 2 min 0 W/m 12,9 km/h (3 Bft) 87,23 %
13.03.2021 19:26 5,4 C 4,4 C 2,3 C 85 % 998,1 hPa 0,0 l/m 0 min 2 min 0 W/m 16,1 km/h (3 Bft) 93,62 %
13.03.2021 19:28 5,3 C 4,4 C 2,8 C 86 % 998,1 hPa 0,0 l/m 0 min 2 min 0 W/m 6,4 km/h (2 Bft) 95,74 %
13.03.2021 19:30 5,3 C 4,4 C 2,8 C 86 % 998,1 hPa 0,0 l/m 0 min 2 min 0 W/m 12,9 km/h (3 Bft) 97,87 %
13.03.2021 19:32 5,3 C 4,4 C 2,8 C 86 % 998,2 hPa 0,0 l/m 0 min 2 min 0 W/m 12,9 km/h (3 Bft) 97,83 %
13.03.2021 19:34 5,3 C 4,4 C 2,8 C 86 % 998,3 hPa 0,0 l/m 0 min 2 min 0 W/m 12,9 km/h (3 Bft) 100,00 %
13.03.2021 19:36 5,3 C 5,0 C 2,8 C 86 % 998,5 hPa 0,0 l/m 0 min 2 min 0 W/m 19,3 km/h (3 Bft) 97,87 %
13.03.2021 19:38 5,4 C 5,0 C 2,8 C 86 % 998,6 hPa 0,0 l/m 0 min 2 min 0 W/m 22,5 km/h (4 Bft) 100,00 %
13.03.2021 19:40 5,5 C 5,0 C 2,8 C 86 % 998,6 hPa 0,0 l/m 0 min 2 min 0 W/m 32,2 km/h (5 Bft) 97,87 %
13.03.2021 19:42 5,6 C 5,0 C 3,4 C 85 % 998,7 hPa 0,0 l/m 0 min 2 min 0 W/m 32,2 km/h (5 Bft) 95,74 %
13.03.2021 19:44 5,6 C 5,0 C 2,8 C 84 % 998,7 hPa 0,2 l/m 0 min 2 min 0 W/m 19,3 km/h (3 Bft) 97,83 %
13.03.2021 19:46 5,6 C 5,0 C 2,8 C 84 % 998,7 hPa 0,0 l/m 0 min 2 min 0 W/m 19,3 km/h (3 Bft) 97,87 %
13.03.2021 19:48 5,5 C 5,0 C 2,8 C 85 % 998,7 hPa 0,0 l/m 0 min 2 min 0 W/m 19,3 km/h (3 Bft) 95,74 %
13.03.2021 19:50 5,5 C 5,0 C 2,8 C 85 % 998,7 hPa 0,0 l/m 0 min 2 min 0 W/m 16,1 km/h (3 Bft) 95,74 %
13.03.2021 19:52 5,5 C 5,0 C 2,8 C 85 % 998,7 hPa 0,0 l/m 0 min 2 min 0 W/m 12,9 km/h (3 Bft) 93,62 %
13.03.2021 19:54 5,5 C 5,0 C 2,8 C 85 % 998,7 hPa 0,0 l/m 0 min 2 min 0 W/m 19,3 km/h (3 Bft) 95,74 %
13.03.2021 19:56 5,4 C 4,4 C 2,8 C 85 % 998,7 hPa 0,0 l/m 0 min 0 min 0 W/m 12,9 km/h (3 Bft) 93,48 %
13.03.2021 19:58 5,4 C 4,4 C 2,8 C 85 % 998,7 hPa 0,0 l/m 0 min 0 min 0 W/m 6,4 km/h (2 Bft) 97,87 %
13.03.2021 20:00 5,4 C 4,4 C 2,8 C 85 % 998,7 hPa 0,0 l/m 0 min 2 min 0 W/m 16,1 km/h (3 Bft) 95,74 %
13.03.2021 20:02 5,4 C 5,0 C 2,8 C 85 % 998,7 hPa 0,0 l/m 0 min 0 min 0 W/m 19,3 km/h (3 Bft) 93,62 %
13.03.2021 20:04 5,4 C 5,0 C 2,8 C 85 % 998,8 hPa 0,0 l/m 0 min 0 min 0 W/m 16,1 km/h (3 Bft) 95,12 %
13.03.2021 20:06 5,5 C 5,0 C 2,8 C 85 % 998,8 hPa 0,0 l/m 0 min 2 min 0 W/m 16,1 km/h (3 Bft) 93,62 %
13.03.2021 20:08 5,5 C 5,0 C 2,8 C 85 % 998,9 hPa 0,0 l/m 0 min 0 min 0 W/m 16,1 km/h (3 Bft) 95,65 %
13.03.2021 20:10 5,6 C 5,0 C 2,8 C 84 % 998,9 hPa 0,0 l/m 0 min 0 min 0 W/m 12,9 km/h (3 Bft) 95,74 %
13.03.2021 20:12 5,6 C 5,0 C 2,8 C 84 % 998,9 hPa 0,0 l/m 0 min 0 min 0 W/m 16,1 km/h (3 Bft) 93,62 %
13.03.2021 20:14 5,7 C 5,0 C 2,8 C 84 % 998,9 hPa 0,0 l/m 0 min 0 min 0 W/m 22,5 km/h (4 Bft) 95,74 %
13.03.2021 20:16 5,7 C 5,0 C 2,8 C 84 % 999,0 hPa 0,0 l/m 0 min 0 min 0 W/m 12,9 km/h (3 Bft) 95,74 %
13.03.2021 20:18 5,8 C 5,0 C 2,8 C 83 % 999,0 hPa 0,0 l/m 0 min 0 min 0 W/m 19,3 km/h (3 Bft) 95,74 %
13.03.2021 20:20 5,8 C 5,0 C 2,8 C 83 % 999,1 hPa 0,0 l/m 0 min 0 min 0 W/m 12,9 km/h (3 Bft) 95,65 %
13.03.2021 20:22 5,7 C 5,0 C 2,8 C 83 % 999,1 hPa 0,0 l/m 0 min 0 min 0 W/m 12,9 km/h (3 Bft) 95,74 %
13.03.2021 20:24 5,6 C 5,0 C 2,8 C 84 % 999,1 hPa 0,0 l/m 0 min 0 min 0 W/m 6,4 km/h (2 Bft) 95,74 %
13.03.2021 20:26 5,6 C 5,0 C 2,8 C 83 % 999,1 hPa 0,0 l/m 0 min 0 min 0 W/m 19,3 km/h (3 Bft) 97,87 %
13.03.2021 20:27 5,6 C 5,0 C 2,8 C 84 % 999,1 hPa 0,0 l/m 0 min 0 min 0 W/m 19,3 km/h (3 Bft) 95,74 %
13.03.2021 20:30 5,6 C 5,0 C 2,8 C 84 % 999,2 hPa 0,0 l/m 0 min 0 min 0 W/m 16,1 km/h (3 Bft) 95,74 %
13.03.2021 20:32 5,5 C 5,0 C 2,8 C 84 % 999,2 hPa 0,0 l/m 0 min 0 min 0 W/m 12,9 km/h (3 Bft) 95,65 %
13.03.2021 20:34 5,5 C 5,0 C 2,8 C 84 % 999,2 hPa 0,0 l/m 0 min 0 min 0 W/m 16,1 km/h (3 Bft) 93,62 %
13.03.2021 20:36 5,5 C 5,0 C 2,8 C 84 % 999,3 hPa 0,0 l/m 0 min 0 min 0 W/m 19,3 km/h (3 Bft) 95,74 %
13.03.2021 20:38 5,5 C 5,0 C 2,8 C 84 % 999,3 hPa 0,0 l/m 0 min 0 min 0 W/m 3,2 km/h (1 Bft) 93,62 %
13.03.2021 20:40 5,5 C 5,0 C 2,8 C 84 % 999,4 hPa 0,0 l/m 0 min 0 min 0 W/m 9,7 km/h (2 Bft) 95,74 %
13.03.2021 20:42 5,5 C 5,0 C 2,8 C 84 % 999,4 hPa 0,0 l/m 0 min 0 min 0 W/m 12,9 km/h (3 Bft) 97,87 %
13.03.2021 20:44 5,5 C 5,0 C 2,8 C 84 % 999,4 hPa 0,0 l/m 0 min 0 min 0 W/m 19,3 km/h (3 Bft) 100,00 %
13.03.2021 20:46 5,5 C 5,0 C 3,4 C 84 % 999,4 hPa 0,0 l/m 0 min 0 min 0 W/m 19,3 km/h (3 Bft) 100,00 %
13.03.2021 20:48 5,5 C 5,0 C 3,4 C 84 % 999,4 hPa 0,0 l/m 0 min 0 min 0 W/m 6,4 km/h (2 Bft) 100,00 %
13.03.2021 20:50 5,5 C 5,0 C 3,4 C 85 % 999,5 hPa 0,0 l/m 0 min 0 min 0 W/m 16,1 km/h (3 Bft) 100,00 %
13.03.2021 20:52 5,5 C 5,0 C 3,4 C 85 % 999,4 hPa 0,0 l/m 0 min 0 min 0 W/m 6,4 km/h (2 Bft) 100,00 %
13.03.2021 20:54 5,5 C 5,0 C 3,4 C 85 % 999,4 hPa 0,0 l/m 0 min 0 min 0 W/m 16,1 km/h (3 Bft) 97,87 %
13.03.2021 20:56 5,5 C 5,0 C 3,4 C 85 % 999,5 hPa 0,0 l/m 0 min 0 min 0 W/m 9,7 km/h (2 Bft) 97,83 %
13.03.2021 20:58 5,5 C 4,4 C 2,8 C 85 % 999,5 hPa 0,0 l/m 0 min 0 min 0 W/m 6,4 km/h (2 Bft) 100,00 %
13.03.2021 21:00 5,5 C 4,4 C 2,8 C 86 % 999,5 hPa 0,0 l/m 0 min 0 min 0 W/m 9,7 km/h (2 Bft) 100,00 %
13.03.2021 21:02 5,4 C 4,4 C 2,8 C 86 % 999,5 hPa 0,0 l/m 0 min 0 min 0 W/m 19,3 km/h (3 Bft) 100,00 %
13.03.2021 21:04 5,4 C 5,0 C 3,4 C 86 % 999,6 hPa 0,0 l/m 0 min 0 min 0 W/m 25,7 km/h (4 Bft) 97,87 %
13.03.2021 21:06 5,5 C 5,0 C 3,4 C 86 % 999,6 hPa 0,0 l/m 0 min 0 min 0 W/m 25,7 km/h (4 Bft) 100,00 %
13.03.2021 21:08 5,5 C 5,0 C 3,4 C 86 % 999,6 hPa 0,0 l/m 0 min 0 min 0 W/m 25,7 km/h (4 Bft) 97,83 %
13.03.2021 21:10 5,5 C 5,0 C 3,4 C 86 % 999,7 hPa 0,0 l/m 0 min 0 min 0 W/m 22,5 km/h (4 Bft) 97,87 %
13.03.2021 21:12 5,5 C 5,0 C 3,4 C 85 % 999,7 hPa 0,0 l/m 0 min 0 min 0 W/m 12,9 km/h (3 Bft) 95,74 %
13.03.2021 21:14 5,5 C 5,0 C 3,4 C 85 % 999,7 hPa 0,0 l/m 0 min 0 min 0 W/m 16,1 km/h (3 Bft) 97,87 %
13.03.2021 21:16 5,5 C 5,0 C 3,4 C 85 % 999,8 hPa 0,0 l/m 0 min 0 min 0 W/m 25,7 km/h (4 Bft) 95,74 %
13.03.2021 21:18 5,5 C 5,0 C 3,4 C 84 % 999,7 hPa 0,0 l/m 0 min 0 min 0 W/m 16,1 km/h (3 Bft) 95,74 %
13.03.2021 21:20 5,5 C 5,0 C 3,4 C 84 % 999,7 hPa 0,0 l/m 0 min 0 min 0 W/m 16,1 km/h (3 Bft) 97,83 %
13.03.2021 21:22 5,5 C 5,0 C 3,4 C 84 % 999,7 hPa 0,0 l/m 0 min 0 min 0 W/m 12,9 km/h (3 Bft) 97,87 %
13.03.2021 21:24 5,4 C 5,0 C 3,4 C 84 % 999,7 hPa 0,0 l/m 0 min 0 min 0 W/m 19,3 km/h (3 Bft) 97,87 %
13.03.2021 21:26 5,4 C 5,0 C 3,4 C 84 % 999,8 hPa 0,0 l/m 0 min 0 min 0 W/m 16,1 km/h (3 Bft) 97,87 %
13.03.2021 21:28 5,4 C 5,0 C 3,4 C 84 % 999,8 hPa 0,0 l/m 0 min 0 min 0 W/m 16,1 km/h (3 Bft) 95,74 %
13.03.2021 21:30 5,4 C 4,4 C 3,4 C 84 % 999,8 hPa 0,0 l/m 0 min 0 min 0 W/m 12,9 km/h (3 Bft) 97,87 %
13.03.2021 21:32 5,4 C 4,4 C 3,4 C 84 % 999,8 hPa 0,0 l/m 0 min 0 min 0 W/m 22,5 km/h (4 Bft) 97,83 %
13.03.2021 21:34 5,3 C 4,4 C 3,4 C 84 % 999,8 hPa 0,0 l/m 0 min 0 min 0 W/m 16,1 km/h (3 Bft) 97,87 %
13.03.2021 21:36 5,3 C 4,4 C 3,4 C 84 % 999,8 hPa 0,0 l/m 0 min 0 min 0 W/m 16,1 km/h (3 Bft) 97,87 %
13.03.2021 21:38 5,3 C 4,4 C 2,8 C 84 % 999,8 hPa 0,0 l/m 0 min 0 min 0 W/m 16,1 km/h (3 Bft) 97,87 %
13.03.2021 21:40 5,3 C 4,4 C 2,8 C 84 % 999,7 hPa 0,0 l/m 0 min 0 min 0 W/m 16,1 km/h (3 Bft) 98,11 %
13.03.2021 21:42 5,3 C 4,4 C 2,8 C 84 % 999,7 hPa 0,0 l/m 0 min 0 min 0 W/m 12,9 km/h (3 Bft) 95,00 %
13.03.2021 21:44 5,3 C 4,4 C 2,8 C 83 % 999,7 hPa 0,0 l/m 0 min 0 min 0 W/m 16,1 km/h (3 Bft) 97,87 %
13.03.2021 21:46 5,3 C 4,4 C 2,8 C 83 % 999,7 hPa 0,0 l/m 0 min 0 min 0 W/m 12,9 km/h (3 Bft) 98,11 %
13.03.2021 21:48 5,3 C 4,4 C 2,8 C 83 % 999,7 hPa 0,0 l/m 0 min 0 min 0 W/m 12,9 km/h (3 Bft) 100,00 %
13.03.2021 21:50 5,2 C 4,4 C 2,8 C 84 % 999,7 hPa 0,0 l/m 0 min 0 min 0 W/m 6,4 km/h (2 Bft) 100,00 %
13.03.2021 21:52 5,2 C 4,4 C 2,8 C 84 % 999,8 hPa 0,0 l/m 0 min 0 min 0 W/m 12,9 km/h (3 Bft) 100,00 %
13.03.2021 21:54 5,2 C 4,4 C 2,8 C 84 % 999,9 hPa 0,0 l/m 0 min 0 min 0 W/m 12,9 km/h (3 Bft) 100,00 %
13.03.2021 21:56 5,2 C 4,4 C 2,8 C 84 % 999,8 hPa 0,0 l/m 0 min 0 min 0 W/m 9,7 km/h (2 Bft) 100,00 %
13.03.2021 21:58 5,2 C 4,4 C 2,8 C 84 % 999,8 hPa 0,0 l/m 0 min 0 min 0 W/m 16,1 km/h (3 Bft) 100,00 %
13.03.2021 22:00 5,2 C 4,4 C 2,8 C 83 % 999,9 hPa 0,0 l/m 0 min 0 min 0 W/m 12,9 km/h (3 Bft) 100,00 %
13.03.2021 22:02 5,2 C 4,4 C 2,8 C 83 % 999,9 hPa 0,0 l/m 0 min 0 min 0 W/m 12,9 km/h (3 Bft) 97,87 %
13.03.2021 22:04 5,2 C 4,4 C 2,8 C 83 % 999,9 hPa 0,0 l/m 0 min 0 min 0 W/m 19,3 km/h (3 Bft) 100,00 %
13.03.2021 22:06 5,2 C 4,4 C 2,8 C 83 % 1000,0 hPa 0,0 l/m 0 min 0 min 0 W/m 16,1 km/h (3 Bft) 100,00 %
13.03.2021 22:08 5,3 C 4,4 C 2,8 C 83 % 1000,1 hPa 0,0 l/m 0 min 0 min 0 W/m 12,9 km/h (3 Bft) 100,00 %
13.03.2021 22:10 5,3 C 4,4 C 2,8 C 83 % 1000,1 hPa 0,0 l/m 0 min 0 min 0 W/m 16,1 km/h (3 Bft) 100,00 %
13.03.2021 22:12 5,3 C 4,4 C 2,8 C 83 % 1000,1 hPa 0,0 l/m 0 min 0 min 0 W/m 16,1 km/h (3 Bft) 100,00 %
13.03.2021 22:14 5,3 C 4,4 C 2,8 C 83 % 1000,2 hPa 0,0 l/m 0 min 0 min 0 W/m 19,3 km/h (3 Bft) 100,00 %
13.03.2021 22:16 5,3 C 4,4 C 2,8 C 83 % 1000,2 hPa 0,0 l/m 0 min 0 min 0 W/m 29,0 km/h (5 Bft) 97,87 %
13.03.2021 22:18 5,3 C 4,4 C 2,8 C 83 % 1000,3 hPa 0,0 l/m 0 min 0 min 0 W/m 22,5 km/h (4 Bft) 100,00 %
13.03.2021 22:20 5,2 C 4,4 C 2,8 C 83 % 1000,3 hPa 0,0 l/m 0 min 0 min 0 W/m 19,3 km/h (3 Bft) 100,00 %
13.03.2021 22:22 5,1 C 4,4 C 2,8 C 83 % 1000,3 hPa 0,0 l/m 0 min 0 min 0 W/m 25,7 km/h (4 Bft) 100,00 %
13.03.2021 22:24 5,1 C 4,4 C 2,8 C 83 % 1000,3 hPa 0,0 l/m 0 min 0 min 0 W/m 19,3 km/h (3 Bft) 100,00 %
13.03.2021 22:26 5,0 C 4,4 C 2,8 C 84 % 1000,4 hPa 0,0 l/m 0 min 0 min 0 W/m 22,5 km/h (4 Bft) 97,87 %
13.03.2021 22:28 5,0 C 4,4 C 2,8 C 84 % 1000,4 hPa 0,0 l/m 0 min 0 min 0 W/m 29,0 km/h (5 Bft) 97,87 %
13.03.2021 22:30 4,9 C 4,4 C 2,8 C 84 % 1000,4 hPa 0,0 l/m 0 min 0 min 0 W/m 22,5 km/h (4 Bft) 100,00 %
13.03.2021 22:32 4,9 C 3,9 C 2,8 C 84 % 1000,4 hPa 0,0 l/m 0 min 0 min 0 W/m 19,3 km/h (3 Bft) 100,00 %
13.03.2021 22:34 4,8 C 3,9 C 2,8 C 85 % 1000,4 hPa 0,0 l/m 0 min 0 min 0 W/m 22,5 km/h (4 Bft) 100,00 %
13.03.2021 22:36 4,8 C 3,9 C 2,8 C 85 % 1000,4 hPa 0,0 l/m 0 min 0 min 0 W/m 16,1 km/h (3 Bft) 100,00 %
13.03.2021 22:38 4,8 C 3,9 C 2,8 C 85 % 1000,6 hPa 0,0 l/m 0 min 0 min 0 W/m 19,3 km/h (3 Bft) 100,00 %
13.03.2021 22:40 4,7 C 3,9 C 2,8 C 85 % 1000,5 hPa 0,0 l/m 0 min 0 min 0 W/m 35,4 km/h (5 Bft) 100,00 %
13.03.2021 22:42 4,7 C 3,9 C 2,8 C 86 % 1000,6 hPa 0,0 l/m 0 min 0 min 0 W/m 16,1 km/h (3 Bft) 100,00 %
13.03.2021 22:44 4,7 C 3,9 C 2,8 C 86 % 1000,6 hPa 0,0 l/m 0 min 0 min 0 W/m 25,7 km/h (4 Bft) 100,00 %
13.03.2021 22:46 4,6 C 3,9 C 2,8 C 86 % 1000,6 hPa 0,0 l/m 0 min 0 min 0 W/m 16,1 km/h (3 Bft) 100,00 %
13.03.2021 22:48 4,6 C 3,9 C 2,8 C 86 % 1000,6 hPa 0,0 l/m 0 min 0 min 0 W/m 16,1 km/h (3 Bft) 100,00 %
13.03.2021 22:50 4,6 C 3,9 C 2,8 C 86 % 1000,7 hPa 0,0 l/m 0 min 0 min 0 W/m 29,0 km/h (5 Bft) 100,00 %
13.03.2021 22:52 4,6 C 3,9 C 2,8 C 87 % 1000,6 hPa 0,0 l/m 0 min 0 min 0 W/m 16,1 km/h (3 Bft) 100,00 %
13.03.2021 22:54 4,5 C 3,9 C 2,8 C 87 % 1000,6 hPa 0,0 l/m 0 min 0 min 0 W/m 12,9 km/h (3 Bft) 97,83 %
13.03.2021 22:56 4,5 C 3,9 C 2,8 C 87 % 1000,7 hPa 0,0 l/m 0 min 0 min 0 W/m 16,1 km/h (3 Bft) 97,87 %
13.03.2021 22:58 4,5 C 3,9 C 2,8 C 87 % 1000,6 hPa 0,0 l/m 0 min 0 min 0 W/m 16,1 km/h (3 Bft) 95,74 %
13.03.2021 23:00 4,5 C 3,9 C 2,8 C 87 % 1000,7 hPa 0,0 l/m 0 min 0 min 0 W/m 6,4 km/h (2 Bft) 97,87 %
13.03.2021 23:02 4,5 C 3,9 C 2,8 C 87 % 1000,6 hPa 0,0 l/m 0 min 0 min 0 W/m 19,3 km/h (3 Bft) 97,87 %
13.03.2021 23:04 4,5 C 3,9 C 2,8 C 87 % 1000,8 hPa 0,0 l/m 0 min 0 min 0 W/m 12,9 km/h (3 Bft) 97,87 %
13.03.2021 23:06 4,6 C 3,9 C 2,8 C 87 % 1000,8 hPa 0,0 l/m 0 min 0 min 0 W/m 12,9 km/h (3 Bft) 91,30 %
13.03.2021 23:08 4,6 C 3,9 C 2,8 C 86 % 1000,7 hPa 0,0 l/m 0 min 0 min 0 W/m 19,3 km/h (3 Bft) 97,87 %
13.03.2021 23:10 4,6 C 3,9 C 2,8 C 86 % 1000,8 hPa 0,0 l/m 0 min 0 min 0 W/m 12,9 km/h (3 Bft) 97,87 %
13.03.2021 23:12 4,6 C 3,9 C 2,8 C 86 % 1000,8 hPa 0,0 l/m 0 min 0 min 0 W/m 12,9 km/h (3 Bft) 97,87 %
13.03.2021 23:14 4,6 C 3,9 C 2,8 C 86 % 1000,8 hPa 0,0 l/m 0 min 0 min 0 W/m 16,1 km/h (3 Bft) 95,74 %
13.03.2021 23:16 4,7 C 4,4 C 2,8 C 86 % 1000,8 hPa 0,0 l/m 0 min 0 min 0 W/m 12,9 km/h (3 Bft) 97,83 %
13.03.2021 23:18 4,7 C 3,9 C 2,8 C 86 % 1000,8 hPa 0,0 l/m 0 min 0 min 0 W/m 9,7 km/h (2 Bft) 98,18 %
13.03.2021 23:20 4,7 C 3,9 C 2,8 C 86 % 1000,8 hPa 0,0 l/m 0 min 0 min 0 W/m 16,1 km/h (3 Bft) 97,37 %
13.03.2021 23:22 4,7 C 3,9 C 2,8 C 86 % 1000,8 hPa 0,0 l/m 0 min 0 min 0 W/m 16,1 km/h (3 Bft) 93,62 %
13.03.2021 23:24 4,8 C 4,4 C 2,8 C 86 % 1000,9 hPa 0,0 l/m 0 min 0 min 0 W/m 12,9 km/h (3 Bft) 95,74 %
13.03.2021 23:26 4,8 C 4,4 C 2,8 C 85 % 1000,9 hPa 0,0 l/m 0 min 0 min 0 W/m 12,9 km/h (3 Bft) 97,87 %
13.03.2021 23:28 4,8 C 4,4 C 2,8 C 85 % 1001,0 hPa 0,0 l/m 0 min 0 min 0 W/m 12,9 km/h (3 Bft) 97,87 %
13.03.2021 23:30 4,8 C 4,4 C 2,8 C 85 % 1001,0 hPa 0,0 l/m 0 min 0 min 0 W/m 19,3 km/h (3 Bft) 97,87 %
13.03.2021 23:32 4,8 C 4,4 C 2,8 C 85 % 1001,0 hPa 0,0 l/m 0 min 0 min 0 W/m 12,9 km/h (3 Bft) 93,62 %
13.03.2021 23:34 4,8 C 4,4 C 2,8 C 85 % 1001,0 hPa 0,0 l/m 0 min 0 min 0 W/m 6,4 km/h (2 Bft) 95,74 %
13.03.2021 23:36 4,8 C 3,9 C 2,8 C 85 % 1001,0 hPa 0,0 l/m 0 min 0 min 0 W/m 19,3 km/h (3 Bft) 95,74 %
13.03.2021 23:38 4,8 C 4,4 C 2,8 C 85 % 1001,1 hPa 0,0 l/m 0 min 0 min 0 W/m 12,9 km/h (3 Bft) 97,87 %
13.03.2021 23:40 4,9 C 4,4 C 2,8 C 85 % 1001,1 hPa 0,0 l/m 0 min 0 min 0 W/m 16,1 km/h (3 Bft) 91,30 %
13.03.2021 23:42 4,9 C 4,4 C 2,8 C 85 % 1001,2 hPa 0,0 l/m 0 min 0 min 0 W/m 16,1 km/h (3 Bft) 93,62 %
13.03.2021 23:44 4,9 C 4,4 C 2,8 C 84 % 1001,2 hPa 0,0 l/m 0 min 0 min 0 W/m 12,9 km/h (3 Bft) 95,74 %
13.03.2021 23:46 4,9 C 4,4 C 2,8 C 84 % 1001,2 hPa 0,0 l/m 0 min 0 min 0 W/m 16,1 km/h (3 Bft) 95,74 %
13.03.2021 23:48 4,9 C 4,4 C 2,8 C 84 % 1001,3 hPa 0,0 l/m 0 min 0 min 0 W/m 12,9 km/h (3 Bft) 97,87 %
13.03.2021 23:50 5,0 C 4,4 C 2,8 C 84 % 1001,3 hPa 0,0 l/m 0 min 0 min 0 W/m 12,9 km/h (3 Bft) 97,87 %
13.03.2021 23:52 5,0 C 4,4 C 2,8 C 84 % 1001,3 hPa 0,0 l/m 0 min 0 min 0 W/m 6,4 km/h (2 Bft) 97,83 %
13.03.2021 23:54 4,9 C 4,4 C 2,8 C 84 % 1001,3 hPa 0,0 l/m 0 min 0 min 0 W/m 16,1 km/h (3 Bft) 95,74 %
13.03.2021 23:56 4,9 C 4,4 C 2,8 C 84 % 1001,3 hPa 0,0 l/m 0 min 0 min 0 W/m 22,5 km/h (4 Bft) 95,74 %
13.03.2021 23:58 4,9 C 4,4 C 2,8 C 84 % 1001,4 hPa 0,0 l/m 0 min 0 min 0 W/m 12,9 km/h (3 Bft) 97,87 %
_ Min-Zeit 16:12 16:04 16:08 13:10 07:58 - - - - 17:00 10:24
Minimum _ 3,4 C 2,2 C 0,0 C 71 % 992,6 hPa - - - - 3,2 km/h (1 Bft) 54,35 %
_ Max-Zeit 13:06 12:50 11:40 04:02 00:02 02:40 11:08 04:07 13:44 08:06 00:34
Maximum _ 9,7 C 15,6 C 10,0 C 95 % 1003,6 hPa 0,2 l/m 2 min 5 min 740 W/m 70,8 km/h
SW (8 Bft)
100,00 %
Durchschnitt _ 6,7 C 6,4 C 4,3 C 86 % 997,1 hPa #8,4 l/m #2:32 h #10:10 h 174 W/m 27,2 km/h (4 Bft) 96,94 %
© 2021 W. Hausmann